Wetterdaten: Mittwoch, 14.07.2021
Datum Zeit Temp. Aussen Temp. o. S. Temp +5cm Feuchte Auss Luftdruck Regen Sonnenschein Regendauer Solar Windben Empfang
14.07.2021 00:00 19,6 C 18,9 C 20,6 C 99 % 1009,1 hPa 0,0 l/m 0 min 0 min 0 W/m 9,7 km/h (2 Bft) 93,62 %
14.07.2021 00:02 19,6 C 18,9 C 20,6 C 99 % 1009,2 hPa 0,0 l/m 0 min 0 min 0 W/m 12,9 km/h (3 Bft) 97,56 %
14.07.2021 00:04 19,5 C 18,9 C 20,6 C 99 % 1009,2 hPa 0,0 l/m 0 min 0 min 0 W/m 16,1 km/h (3 Bft) 95,74 %
14.07.2021 00:08 19,5 C 18,9 C 20,6 C 99 % 1009,2 hPa 0,0 l/m 0 min 0 min 0 W/m 12,9 km/h (3 Bft) 95,79 %
14.07.2021 00:10 19,5 C 18,9 C 20,6 C 99 % 1009,1 hPa 0,0 l/m 0 min 0 min 0 W/m 9,7 km/h (2 Bft) 95,74 %
14.07.2021 00:12 19,5 C 18,9 C 20,6 C 99 % 1009,1 hPa 0,2 l/m 0 min 0 min 0 W/m 19,3 km/h (3 Bft) 95,74 %
14.07.2021 00:14 19,5 C 18,9 C 20,6 C 99 % 1009,2 hPa 0,0 l/m 0 min 0 min 0 W/m 12,9 km/h (3 Bft) 95,74 %
14.07.2021 00:16 19,5 C 18,3 C 20,6 C 99 % 1009,1 hPa 0,0 l/m 0 min 0 min 0 W/m 9,7 km/h (2 Bft) 91,49 %
14.07.2021 00:18 19,5 C 18,3 C 20,6 C 99 % 1009,2 hPa 0,0 l/m 0 min 0 min 0 W/m 16,1 km/h (3 Bft) 93,62 %
14.07.2021 00:20 19,5 C 18,3 C 20,6 C 99 % 1009,3 hPa 0,0 l/m 0 min 0 min 0 W/m 12,9 km/h (3 Bft) 95,65 %
14.07.2021 00:22 19,5 C 18,3 C 20,6 C 99 % 1009,3 hPa 0,0 l/m 0 min 0 min 0 W/m 9,7 km/h (2 Bft) 95,74 %
14.07.2021 00:24 19,5 C 18,3 C 20,6 C 99 % 1009,3 hPa 0,0 l/m 0 min 0 min 0 W/m 12,9 km/h (3 Bft) 97,87 %
14.07.2021 00:26 19,4 C 18,3 C 20,6 C 99 % 1009,3 hPa 0,0 l/m 0 min 0 min 0 W/m 12,9 km/h (3 Bft) 95,74 %
14.07.2021 00:28 19,4 C 18,3 C 20,6 C 99 % 1009,2 hPa 0,0 l/m 0 min 0 min 0 W/m 9,7 km/h (2 Bft) 95,74 %
14.07.2021 00:30 19,4 C 18,3 C 20,6 C 99 % 1009,2 hPa 0,0 l/m 0 min 0 min 0 W/m 9,7 km/h (2 Bft) 97,87 %
14.07.2021 00:32 19,4 C 18,3 C 20,6 C 99 % 1009,2 hPa 0,0 l/m 0 min 2 min 0 W/m 16,1 km/h (3 Bft) 97,83 %
14.07.2021 00:34 19,4 C 18,3 C 20,6 C 99 % 1009,2 hPa 0,0 l/m 0 min 2 min 0 W/m 22,5 km/h (4 Bft) 97,87 %
14.07.2021 00:36 19,4 C 18,3 C 20,6 C 100 % 1009,2 hPa 0,0 l/m 0 min 2 min 0 W/m 12,9 km/h (3 Bft) 97,87 %
14.07.2021 00:38 19,4 C 18,3 C 20,6 C 100 % 1009,2 hPa 0,2 l/m 0 min 2 min 0 W/m 12,9 km/h (3 Bft) 97,92 %
14.07.2021 00:40 19,4 C 18,3 C 20,6 C 100 % 1009,2 hPa 0,2 l/m 0 min 2 min 0 W/m 19,3 km/h (3 Bft) 97,87 %
14.07.2021 00:42 19,4 C 18,3 C 20,6 C 100 % 1009,2 hPa 0,2 l/m 0 min 2 min 0 W/m 19,3 km/h (3 Bft) 97,87 %
14.07.2021 00:44 19,4 C 18,3 C 20,6 C 100 % 1009,2 hPa 0,4 l/m 0 min 2 min 0 W/m 6,4 km/h (2 Bft) 97,83 %
14.07.2021 00:46 19,4 C 18,3 C 20,6 C 100 % 1009,2 hPa 0,4 l/m 0 min 2 min 0 W/m 6,4 km/h (2 Bft) 93,62 %
14.07.2021 00:48 19,3 C 18,3 C 20,6 C 100 % 1009,3 hPa 0,2 l/m 0 min 2 min 0 W/m 9,7 km/h (2 Bft) 97,87 %
14.07.2021 00:50 19,3 C 18,3 C 20,6 C 100 % 1009,4 hPa 0,2 l/m 0 min 2 min 0 W/m 16,1 km/h (3 Bft) 95,74 %
14.07.2021 00:52 19,3 C 18,3 C 20,6 C 99 % 1009,4 hPa 0,4 l/m 0 min 2 min 0 W/m 9,7 km/h (2 Bft) 97,87 %
14.07.2021 00:54 19,3 C 18,3 C 20,6 C 99 % 1009,5 hPa 0,4 l/m 0 min 2 min 0 W/m 16,1 km/h (3 Bft) 97,87 %
14.07.2021 00:56 19,3 C 17,8 C 20,6 C 100 % 1009,5 hPa 0,4 l/m 0 min 2 min 0 W/m 6,4 km/h (2 Bft) 97,83 %
14.07.2021 00:58 19,3 C 17,8 C 20,6 C 100 % 1009,5 hPa 0,2 l/m 0 min 2 min 0 W/m 25,7 km/h (4 Bft) 97,87 %
14.07.2021 01:00 19,3 C 17,8 C 20,6 C 100 % 1009,4 hPa 0,2 l/m 0 min 2 min 0 W/m 25,7 km/h (4 Bft) 97,87 %
14.07.2021 01:02 19,2 C 17,8 C 20,6 C 100 % 1009,4 hPa 0,0 l/m 0 min 2 min 0 W/m 6,4 km/h (2 Bft) 97,87 %
14.07.2021 01:04 19,2 C 18,3 C 20,6 C 100 % 1009,4 hPa 0,0 l/m 0 min 0 min 0 W/m 16,1 km/h (3 Bft) 95,74 %
14.07.2021 01:06 19,2 C 17,8 C 20,6 C 100 % 1009,4 hPa 0,0 l/m 0 min 0 min 0 W/m 9,7 km/h (2 Bft) 97,83 %
14.07.2021 01:08 19,2 C 17,8 C 20,6 C 100 % 1009,5 hPa 0,0 l/m 0 min 0 min 0 W/m 9,7 km/h (2 Bft) 97,87 %
14.07.2021 01:10 19,2 C 17,8 C 20,6 C 100 % 1009,4 hPa 0,0 l/m 0 min 0 min 0 W/m 9,7 km/h (2 Bft) 97,87 %
14.07.2021 01:12 19,2 C 17,8 C 20,6 C 100 % 1009,5 hPa 0,0 l/m 0 min 0 min 0 W/m 12,9 km/h (3 Bft) 97,87 %
14.07.2021 01:14 19,2 C 17,8 C 20,6 C 100 % 1009,5 hPa 0,0 l/m 0 min 2 min 0 W/m 19,3 km/h (3 Bft) 97,87 %
14.07.2021 01:16 19,2 C 17,8 C 20,6 C 100 % 1009,5 hPa 0,0 l/m 0 min 0 min 0 W/m 9,7 km/h (2 Bft) 97,87 %
14.07.2021 01:18 19,2 C 18,3 C 20,6 C 100 % 1009,6 hPa 0,0 l/m 0 min 2 min 0 W/m 6,4 km/h (2 Bft) 97,83 %
14.07.2021 01:20 19,2 C 18,3 C 20,6 C 100 % 1009,6 hPa 0,0 l/m 0 min 2 min 0 W/m 16,1 km/h (3 Bft) 97,87 %
14.07.2021 01:22 19,1 C 18,3 C 20,6 C 100 % 1009,6 hPa 0,0 l/m 0 min 2 min 0 W/m 9,7 km/h (2 Bft) 95,74 %
14.07.2021 01:24 19,1 C 18,3 C 20,6 C 100 % 1009,6 hPa 0,0 l/m 0 min 2 min 0 W/m 9,7 km/h (2 Bft) 97,87 %
14.07.2021 01:26 19,1 C 18,3 C 20,6 C 100 % 1009,6 hPa 0,0 l/m 0 min 0 min 0 W/m 12,9 km/h (3 Bft) 97,87 %
14.07.2021 01:28 19,1 C 17,8 C 20,6 C 100 % 1009,6 hPa 0,0 l/m 0 min 0 min 0 W/m 16,1 km/h (3 Bft) 97,87 %
14.07.2021 01:30 19,1 C 18,3 C 20,6 C 100 % 1009,6 hPa 0,0 l/m 0 min 0 min 0 W/m 9,7 km/h (2 Bft) 97,83 %
14.07.2021 01:32 19,1 C 18,3 C 20,6 C 100 % 1009,6 hPa 0,0 l/m 0 min 2 min 0 W/m 6,4 km/h (2 Bft) 95,74 %
14.07.2021 01:34 19,1 C 18,3 C 20,6 C 100 % 1009,6 hPa 0,0 l/m 0 min 0 min 0 W/m 16,1 km/h (3 Bft) 97,87 %
14.07.2021 01:36 19,1 C 18,3 C 20,6 C 100 % 1009,6 hPa 0,0 l/m 0 min 0 min 0 W/m 16,1 km/h (3 Bft) 95,74 %
14.07.2021 01:38 19,1 C 18,3 C 20,6 C 100 % 1009,5 hPa 0,0 l/m 0 min 0 min 0 W/m 6,4 km/h (2 Bft) 97,87 %
14.07.2021 01:40 19,1 C 18,3 C 20,6 C 100 % 1009,5 hPa 0,0 l/m 0 min 2 min 0 W/m 9,7 km/h (2 Bft) 97,87 %
14.07.2021 01:42 19,1 C 17,8 C 20,6 C 100 % 1009,5 hPa 0,0 l/m 0 min 2 min 0 W/m 16,1 km/h (3 Bft) 95,65 %
14.07.2021 01:44 19,1 C 17,8 C 20,6 C 100 % 1009,5 hPa 0,0 l/m 0 min 2 min 0 W/m 9,7 km/h (2 Bft) 97,87 %
14.07.2021 01:46 19,1 C 17,8 C 20,6 C 100 % 1009,5 hPa 0,2 l/m 0 min 2 min 0 W/m 16,1 km/h (3 Bft) 93,62 %
14.07.2021 01:48 19,1 C 17,8 C 20,6 C 100 % 1009,5 hPa 0,0 l/m 0 min 2 min 0 W/m 12,9 km/h (3 Bft) 95,74 %
14.07.2021 01:50 19,1 C 17,8 C 20,6 C 100 % 1009,5 hPa 0,0 l/m 0 min 2 min 0 W/m 6,4 km/h (2 Bft) 93,62 %
14.07.2021 01:52 19,1 C 17,8 C 20,6 C 100 % 1009,5 hPa 0,0 l/m 0 min 2 min 0 W/m 9,7 km/h (2 Bft) 95,74 %
14.07.2021 01:54 19,1 C 17,8 C 20,6 C 100 % 1009,4 hPa 0,0 l/m 0 min 2 min 0 W/m 16,1 km/h (3 Bft) 95,65 %
14.07.2021 01:56 19,1 C 17,8 C 20,6 C 100 % 1009,4 hPa 0,0 l/m 0 min 2 min 0 W/m 12,9 km/h (3 Bft) 93,62 %
14.07.2021 01:58 19,0 C 17,8 C 20,6 C 100 % 1009,4 hPa 0,0 l/m 0 min 2 min 0 W/m 6,4 km/h (2 Bft) 95,74 %
14.07.2021 02:00 19,0 C 17,8 C 20,6 C 100 % 1009,4 hPa 0,0 l/m 0 min 2 min 0 W/m 16,1 km/h (3 Bft) 95,74 %
14.07.2021 02:02 19,0 C 17,8 C 20,6 C 100 % 1009,4 hPa 0,0 l/m 0 min 2 min 0 W/m 16,1 km/h (3 Bft) 93,62 %
14.07.2021 02:04 19,0 C 17,8 C 20,6 C 100 % 1009,4 hPa 0,2 l/m 0 min 2 min 0 W/m 6,4 km/h (2 Bft) 95,74 %
14.07.2021 02:06 19,0 C 17,8 C 20,6 C 100 % 1009,4 hPa 0,0 l/m 0 min 2 min 0 W/m 12,9 km/h (3 Bft) 93,48 %
14.07.2021 02:08 19,0 C 17,8 C 20,6 C 100 % 1009,4 hPa 0,0 l/m 0 min 2 min 0 W/m 16,1 km/h (3 Bft) 93,62 %
14.07.2021 02:10 19,0 C 17,8 C 20,6 C 100 % 1009,4 hPa 0,2 l/m 0 min 2 min 0 W/m 9,7 km/h (2 Bft) 93,62 %
14.07.2021 02:12 19,0 C 17,8 C 20,6 C 100 % 1009,4 hPa 0,0 l/m 0 min 2 min 0 W/m 16,1 km/h (3 Bft) 97,87 %
14.07.2021 02:14 19,0 C 17,8 C 20,6 C 100 % 1009,5 hPa 0,2 l/m 0 min 2 min 0 W/m 12,9 km/h (3 Bft) 95,74 %
14.07.2021 02:16 19,0 C 17,8 C 20,6 C 100 % 1009,5 hPa 0,0 l/m 0 min 2 min 0 W/m 12,9 km/h (3 Bft) 95,74 %
14.07.2021 02:18 19,0 C 17,8 C 20,6 C 100 % 1009,5 hPa 0,0 l/m 0 min 2 min 0 W/m 9,7 km/h (2 Bft) 95,65 %
14.07.2021 02:20 19,0 C 17,8 C 20,6 C 100 % 1009,5 hPa 0,0 l/m 0 min 2 min 0 W/m 9,7 km/h (2 Bft) 95,74 %
14.07.2021 02:22 19,0 C 17,8 C 20,6 C 100 % 1009,5 hPa 0,2 l/m 0 min 2 min 0 W/m 12,9 km/h (3 Bft) 93,62 %
14.07.2021 02:24 19,0 C 17,8 C 20,6 C 100 % 1009,5 hPa 0,0 l/m 0 min 2 min 0 W/m 12,9 km/h (3 Bft) 91,49 %
14.07.2021 02:26 19,0 C 17,8 C 20,6 C 100 % 1009,5 hPa 0,2 l/m 0 min 2 min 0 W/m 9,7 km/h (2 Bft) 93,62 %
14.07.2021 02:28 19,0 C 17,8 C 20,6 C 100 % 1009,6 hPa 0,0 l/m 0 min 2 min 0 W/m 19,3 km/h (3 Bft) 93,62 %
14.07.2021 02:30 19,0 C 17,8 C 20,6 C 100 % 1009,5 hPa 0,2 l/m 0 min 2 min 0 W/m 12,9 km/h (3 Bft) 93,48 %
14.07.2021 02:32 19,0 C 17,8 C 20,6 C 100 % 1009,6 hPa 0,0 l/m 0 min 2 min 0 W/m 16,1 km/h (3 Bft) 93,62 %
14.07.2021 02:34 19,0 C 17,8 C 20,6 C 100 % 1009,6 hPa 0,2 l/m 0 min 2 min 0 W/m 16,1 km/h (3 Bft) 89,36 %
14.07.2021 02:36 19,0 C 17,8 C 20,6 C 100 % 1009,6 hPa 0,0 l/m 0 min 2 min 0 W/m 9,7 km/h (2 Bft) 93,62 %
14.07.2021 02:38 19,0 C 17,8 C 20,6 C 100 % 1009,5 hPa 0,2 l/m 0 min 2 min 0 W/m 12,9 km/h (3 Bft) 97,87 %
14.07.2021 02:40 19,0 C 17,8 C 20,6 C 100 % 1009,5 hPa 0,2 l/m 0 min 2 min 0 W/m 9,7 km/h (2 Bft) 95,74 %
14.07.2021 02:42 19,0 C 17,8 C 20,6 C 100 % 1009,5 hPa 0,0 l/m 0 min 2 min 0 W/m 12,9 km/h (3 Bft) 95,65 %
14.07.2021 02:44 19,0 C 17,8 C 20,6 C 100 % 1009,5 hPa 0,0 l/m 0 min 2 min 0 W/m 16,1 km/h (3 Bft) 95,74 %
14.07.2021 02:46 19,0 C 17,8 C 20,6 C 100 % 1009,5 hPa 0,2 l/m 0 min 2 min 0 W/m 22,5 km/h (4 Bft) 95,74 %
14.07.2021 02:48 19,0 C 17,8 C 20,6 C 100 % 1009,5 hPa 0,2 l/m 0 min 2 min 0 W/m 16,1 km/h (3 Bft) 95,74 %
14.07.2021 02:50 19,0 C 17,8 C 20,6 C 100 % 1009,5 hPa 0,0 l/m 0 min 2 min 0 W/m 16,1 km/h (3 Bft) 91,49 %
14.07.2021 02:52 18,9 C 17,8 C 20,6 C 100 % 1009,6 hPa 0,2 l/m 0 min 2 min 0 W/m 12,9 km/h (3 Bft) 95,74 %
14.07.2021 02:54 18,9 C 17,8 C 20,6 C 100 % 1009,6 hPa 0,2 l/m 0 min 2 min 0 W/m 16,1 km/h (3 Bft) 95,65 %
14.07.2021 02:56 18,9 C 17,8 C 20,6 C 100 % 1009,6 hPa 0,0 l/m 0 min 2 min 0 W/m 12,9 km/h (3 Bft) 95,74 %
14.07.2021 02:58 18,9 C 17,8 C 20,6 C 100 % 1009,6 hPa 0,2 l/m 0 min 2 min 0 W/m 19,3 km/h (3 Bft) 95,74 %
14.07.2021 03:00 18,9 C 17,8 C 20,6 C 100 % 1009,5 hPa 0,2 l/m 0 min 2 min 0 W/m 9,7 km/h (2 Bft) 95,74 %
14.07.2021 03:02 18,9 C 17,8 C 20,6 C 100 % 1009,5 hPa 0,4 l/m 0 min 2 min 0 W/m 22,5 km/h (4 Bft) 93,62 %
14.07.2021 03:04 18,9 C 17,8 C 20,6 C 100 % 1009,5 hPa 0,2 l/m 0 min 2 min 0 W/m 19,3 km/h (3 Bft) 93,62 %
14.07.2021 03:06 18,9 C 17,8 C 20,6 C 100 % 1009,4 hPa 0,2 l/m 0 min 2 min 0 W/m 12,9 km/h (3 Bft) 97,83 %
14.07.2021 03:08 18,9 C 17,8 C 20,6 C 100 % 1009,3 hPa 0,0 l/m 0 min 2 min 0 W/m 19,3 km/h (3 Bft) 95,74 %
14.07.2021 03:10 18,9 C 17,8 C 20,6 C 100 % 1009,3 hPa 0,4 l/m 0 min 2 min 0 W/m 19,3 km/h (3 Bft) 95,74 %
14.07.2021 03:12 18,9 C 17,8 C 20,6 C 100 % 1009,2 hPa 0,0 l/m 0 min 2 min 0 W/m 22,5 km/h (4 Bft) 97,87 %
14.07.2021 03:14 18,9 C 17,8 C 20,6 C 100 % 1009,2 hPa 0,4 l/m 0 min 2 min 0 W/m 19,3 km/h (3 Bft) 95,74 %
14.07.2021 03:16 18,9 C 17,8 C 20,6 C 100 % 1009,1 hPa 0,2 l/m 0 min 2 min 0 W/m 19,3 km/h (3 Bft) 97,83 %
14.07.2021 03:18 18,9 C 17,8 C 20,6 C 100 % 1009,2 hPa 0,2 l/m 0 min 2 min 0 W/m 19,3 km/h (3 Bft) 95,74 %
14.07.2021 03:20 18,9 C 17,8 C 20,6 C 100 % 1009,2 hPa 0,2 l/m 0 min 2 min 0 W/m 9,7 km/h (2 Bft) 97,87 %
14.07.2021 03:22 18,9 C 17,8 C 20,6 C 100 % 1009,3 hPa 0,2 l/m 0 min 2 min 0 W/m 19,3 km/h (3 Bft) 97,87 %
14.07.2021 03:24 18,9 C 17,8 C 20,6 C 100 % 1009,2 hPa 0,0 l/m 0 min 2 min 0 W/m 19,3 km/h (3 Bft) 97,87 %
14.07.2021 03:26 18,9 C 17,8 C 20,6 C 100 % 1009,2 hPa 0,2 l/m 0 min 2 min 0 W/m 16,1 km/h (3 Bft) 97,87 %
14.07.2021 03:28 18,9 C 17,8 C 20,6 C 100 % 1009,2 hPa 0,2 l/m 0 min 2 min 0 W/m 16,1 km/h (3 Bft) 97,83 %
14.07.2021 03:30 18,9 C 17,8 C 20,6 C 100 % 1009,2 hPa 0,0 l/m 0 min 2 min 0 W/m 25,7 km/h (4 Bft) 97,87 %
14.07.2021 03:32 18,9 C 17,8 C 20,6 C 100 % 1009,1 hPa 0,2 l/m 0 min 2 min 0 W/m 22,5 km/h (4 Bft) 97,87 %
14.07.2021 03:34 18,9 C 17,8 C 20,6 C 100 % 1009,2 hPa 0,0 l/m 0 min 2 min 0 W/m 29,0 km/h (5 Bft) 97,87 %
14.07.2021 03:36 18,9 C 17,8 C 20,6 C 100 % 1009,2 hPa 0,2 l/m 0 min 2 min 0 W/m 22,5 km/h (4 Bft) 97,87 %
14.07.2021 03:38 18,9 C 17,8 C 20,6 C 100 % 1009,2 hPa 0,0 l/m 0 min 2 min 0 W/m 9,7 km/h (2 Bft) 95,74 %
14.07.2021 03:40 18,9 C 17,8 C 20,6 C 100 % 1009,2 hPa 0,0 l/m 0 min 2 min 0 W/m 6,4 km/h (2 Bft) 97,83 %
14.07.2021 03:42 18,9 C 17,8 C 20,6 C 100 % 1009,2 hPa 0,2 l/m 0 min 2 min 0 W/m 12,9 km/h (3 Bft) 97,87 %
14.07.2021 03:44 18,9 C 17,8 C 21,1 C 100 % 1009,2 hPa 0,0 l/m 0 min 2 min 0 W/m 12,9 km/h (3 Bft) 97,87 %
14.07.2021 03:46 18,9 C 17,8 C 21,1 C 100 % 1009,2 hPa 0,0 l/m 0 min 2 min 0 W/m 6,4 km/h (2 Bft) 97,87 %
14.07.2021 03:48 18,9 C 17,8 C 20,6 C 100 % 1009,2 hPa 0,2 l/m 0 min 2 min 0 W/m 12,9 km/h (3 Bft) 97,87 %
14.07.2021 03:50 18,9 C 17,8 C 20,6 C 100 % 1009,2 hPa 0,0 l/m 0 min 2 min 0 W/m 12,9 km/h (3 Bft) 97,87 %
14.07.2021 03:52 18,9 C 17,8 C 20,6 C 100 % 1009,2 hPa 0,0 l/m 0 min 2 min 0 W/m 16,1 km/h (3 Bft) 97,83 %
14.07.2021 03:54 18,9 C 17,8 C 20,6 C 100 % 1009,1 hPa 0,0 l/m 0 min 0 min 0 W/m 9,7 km/h (2 Bft) 95,74 %
14.07.2021 03:56 18,8 C 17,8 C 21,1 C 100 % 1009,1 hPa 0,0 l/m 0 min 2 min 0 W/m 16,1 km/h (3 Bft) 95,74 %
14.07.2021 03:58 18,8 C 17,8 C 21,1 C 100 % 1009,2 hPa 0,0 l/m 0 min 2 min 0 W/m 16,1 km/h (3 Bft) 95,74 %
14.07.2021 04:00 18,8 C 17,8 C 21,1 C 100 % 1009,1 hPa 0,2 l/m 0 min 2 min 0 W/m 12,9 km/h (3 Bft) 97,87 %
14.07.2021 04:02 18,8 C 17,8 C 20,6 C 100 % 1009,1 hPa 0,0 l/m 0 min 2 min 0 W/m 16,1 km/h (3 Bft) 100,00 %
14.07.2021 04:04 18,8 C 17,8 C 21,1 C 100 % 1009,1 hPa 0,0 l/m 0 min 0 min 0 W/m 16,1 km/h (3 Bft) 97,83 %
14.07.2021 04:06 18,8 C 17,8 C 20,6 C 100 % 1009,0 hPa 0,0 l/m 0 min 2 min 0 W/m 12,9 km/h (3 Bft) 97,87 %
14.07.2021 04:08 18,8 C 17,8 C 21,1 C 100 % 1008,9 hPa 0,0 l/m 0 min 2 min 0 W/m 16,1 km/h (3 Bft) 95,74 %
14.07.2021 04:10 18,8 C 17,8 C 21,1 C 100 % 1008,9 hPa 0,0 l/m 0 min 2 min 0 W/m 19,3 km/h (3 Bft) 97,87 %
14.07.2021 04:12 18,8 C 17,8 C 21,1 C 100 % 1008,9 hPa 0,0 l/m 0 min 0 min 0 W/m 12,9 km/h (3 Bft) 97,87 %
14.07.2021 04:14 18,8 C 17,8 C 21,1 C 100 % 1009,0 hPa 0,0 l/m 0 min 0 min 0 W/m 12,9 km/h (3 Bft) 97,87 %
14.07.2021 04:16 18,8 C 17,8 C 21,1 C 100 % 1009,0 hPa 0,0 l/m 0 min 2 min 0 W/m 19,3 km/h (3 Bft) 97,83 %
14.07.2021 04:18 18,8 C 17,8 C 21,1 C 100 % 1009,0 hPa 0,0 l/m 0 min 0 min 0 W/m 9,7 km/h (2 Bft) 97,87 %
14.07.2021 04:20 18,8 C 17,8 C 21,1 C 100 % 1009,0 hPa 0,0 l/m 0 min 0 min 0 W/m 16,1 km/h (3 Bft) 97,87 %
14.07.2021 04:22 18,8 C 17,8 C 21,1 C 100 % 1009,0 hPa 0,2 l/m 0 min 2 min 0 W/m 16,1 km/h (3 Bft) 95,74 %
14.07.2021 04:24 18,8 C 17,8 C 21,1 C 100 % 1009,0 hPa 0,0 l/m 0 min 2 min 0 W/m 22,5 km/h (4 Bft) 97,87 %
14.07.2021 04:26 18,8 C 17,8 C 21,1 C 100 % 1009,0 hPa 0,0 l/m 0 min 2 min 0 W/m 12,9 km/h (3 Bft) 95,74 %
14.07.2021 04:28 18,8 C 17,8 C 21,1 C 100 % 1009,0 hPa 0,0 l/m 0 min 2 min 0 W/m 16,1 km/h (3 Bft) 95,65 %
14.07.2021 04:30 18,8 C 17,8 C 21,1 C 100 % 1009,0 hPa 0,0 l/m 0 min 2 min 0 W/m 16,1 km/h (3 Bft) 97,87 %
14.07.2021 04:32 18,8 C 17,8 C 21,1 C 100 % 1009,0 hPa 0,0 l/m 0 min 2 min 0 W/m 12,9 km/h (3 Bft) 97,87 %
14.07.2021 04:34 18,8 C 17,8 C 21,1 C 100 % 1009,1 hPa 0,0 l/m 0 min 2 min 0 W/m 12,9 km/h (3 Bft) 97,87 %
14.07.2021 04:36 18,8 C 17,8 C 21,1 C 100 % 1009,1 hPa 0,0 l/m 0 min 2 min 0 W/m 16,1 km/h (3 Bft) 95,74 %
14.07.2021 04:38 18,8 C 17,8 C 21,1 C 100 % 1009,1 hPa 0,0 l/m 0 min 2 min 0 W/m 12,9 km/h (3 Bft) 97,92 %
14.07.2021 04:40 18,8 C 17,8 C 21,1 C 100 % 1009,2 hPa 0,0 l/m 0 min 2 min 0 W/m 22,5 km/h (4 Bft) 97,83 %
14.07.2021 04:42 18,8 C 17,8 C 21,1 C 100 % 1009,1 hPa 0,0 l/m 0 min 2 min 0 W/m 9,7 km/h (2 Bft) 97,87 %
14.07.2021 04:44 18,8 C 17,8 C 21,1 C 100 % 1009,1 hPa 0,0 l/m 0 min 2 min 0 W/m 19,3 km/h (3 Bft) 95,74 %
14.07.2021 04:46 18,8 C 17,8 C 21,1 C 100 % 1009,1 hPa 0,0 l/m 0 min 2 min 0 W/m 16,1 km/h (3 Bft) 95,74 %
14.07.2021 04:48 18,8 C 17,8 C 21,1 C 100 % 1009,1 hPa 0,0 l/m 0 min 2 min 0 W/m 9,7 km/h (2 Bft) 95,74 %
14.07.2021 04:50 18,8 C 17,8 C 21,1 C 100 % 1009,1 hPa 0,0 l/m 0 min 2 min 0 W/m 12,9 km/h (3 Bft) 93,62 %
14.07.2021 04:52 18,8 C 17,8 C 21,1 C 100 % 1009,1 hPa 0,0 l/m 0 min 2 min 0 W/m 12,9 km/h (3 Bft) 93,48 %
14.07.2021 04:54 18,7 C 17,8 C 21,1 C 100 % 1009,1 hPa 0,2 l/m 0 min 2 min 0 W/m 12,9 km/h (3 Bft) 91,49 %
14.07.2021 04:56 18,7 C 17,8 C 21,1 C 100 % 1009,1 hPa 0,0 l/m 0 min 2 min 0 W/m 12,9 km/h (3 Bft) 93,62 %
14.07.2021 04:58 18,7 C 17,8 C 21,1 C 100 % 1009,1 hPa 0,0 l/m 0 min 2 min 0 W/m 12,9 km/h (3 Bft) 97,87 %
14.07.2021 05:00 18,7 C 17,8 C 21,1 C 100 % 1009,0 hPa 0,0 l/m 0 min 2 min 0 W/m 12,9 km/h (3 Bft) 95,74 %
14.07.2021 05:02 18,7 C 17,8 C 21,1 C 100 % 1009,0 hPa 0,2 l/m 0 min 2 min 0 W/m 16,1 km/h (3 Bft) 95,74 %
14.07.2021 05:04 18,7 C 17,8 C 21,1 C 100 % 1009,1 hPa 0,0 l/m 0 min 0 min 0 W/m 12,9 km/h (3 Bft) 95,74 %
14.07.2021 05:06 18,7 C 17,8 C 21,1 C 100 % 1009,0 hPa 0,0 l/m 0 min 2 min 0 W/m 9,7 km/h (2 Bft) 95,74 %
14.07.2021 05:08 18,7 C 17,8 C 21,1 C 100 % 1009,0 hPa 0,0 l/m 0 min 2 min 0 W/m 9,7 km/h (2 Bft) 91,49 %
14.07.2021 05:10 18,7 C 17,8 C 21,1 C 100 % 1009,0 hPa 0,0 l/m 0 min 2 min 0 W/m 6,4 km/h (2 Bft) 93,62 %
14.07.2021 05:12 18,7 C 17,8 C 21,1 C 100 % 1009,0 hPa 0,0 l/m 0 min 2 min 0 W/m 16,1 km/h (3 Bft) 93,48 %
14.07.2021 05:14 18,7 C 17,8 C 21,1 C 100 % 1009,0 hPa 0,0 l/m 0 min 0 min 0 W/m 16,1 km/h (3 Bft) 93,62 %
14.07.2021 05:16 18,7 C 17,8 C 21,1 C 100 % 1009,1 hPa 0,0 l/m 0 min 2 min 0 W/m 16,1 km/h (3 Bft) 93,62 %
14.07.2021 05:18 18,7 C 17,8 C 21,1 C 100 % 1009,0 hPa 0,0 l/m 0 min 2 min 0 W/m 6,4 km/h (2 Bft) 93,62 %
14.07.2021 05:20 18,7 C 17,8 C 21,1 C 100 % 1009,0 hPa 0,0 l/m 0 min 2 min 0 W/m 6,4 km/h (2 Bft) 93,62 %
14.07.2021 05:22 18,7 C 17,8 C 21,1 C 100 % 1009,0 hPa 0,0 l/m 0 min 2 min 0 W/m 9,7 km/h (2 Bft) 93,62 %
14.07.2021 05:24 18,7 C 17,8 C 21,1 C 100 % 1009,0 hPa 0,0 l/m 0 min 2 min 0 W/m 6,4 km/h (2 Bft) 91,30 %
14.07.2021 05:26 18,6 C 17,8 C 21,1 C 100 % 1008,9 hPa 0,0 l/m 0 min 2 min 0 W/m 9,7 km/h (2 Bft) 93,62 %
14.07.2021 05:28 18,7 C 17,8 C 21,1 C 100 % 1008,9 hPa 0,2 l/m 0 min 2 min 0 W/m 9,7 km/h (2 Bft) 95,74 %
14.07.2021 05:30 18,6 C 17,8 C 21,1 C 100 % 1008,9 hPa 0,0 l/m 0 min 2 min 0 W/m 9,7 km/h (2 Bft) 93,62 %
14.07.2021 05:32 18,6 C 17,8 C 21,1 C 100 % 1008,9 hPa 0,0 l/m 0 min 2 min 0 W/m 6,4 km/h (2 Bft) 93,62 %
14.07.2021 05:34 18,6 C 17,8 C 21,1 C 100 % 1009,0 hPa 0,0 l/m 0 min 0 min 0 W/m 9,7 km/h (2 Bft) 95,74 %
14.07.2021 05:36 18,6 C 17,8 C 21,1 C 100 % 1008,9 hPa 0,0 l/m 0 min 2 min 0 W/m 9,7 km/h (2 Bft) 97,83 %
14.07.2021 05:38 18,6 C 17,8 C 21,1 C 100 % 1008,9 hPa 0,0 l/m 0 min 2 min 0 W/m 9,7 km/h (2 Bft) 95,74 %
14.07.2021 05:40 18,6 C 17,8 C 21,1 C 100 % 1008,9 hPa 0,0 l/m 0 min 2 min 0 W/m 16,1 km/h (3 Bft) 93,62 %
14.07.2021 05:42 18,6 C 17,8 C 21,1 C 100 % 1008,9 hPa 0,0 l/m 0 min 2 min 0 W/m 9,7 km/h (2 Bft) 97,87 %
14.07.2021 05:44 18,6 C 17,8 C 21,1 C 100 % 1008,9 hPa 0,0 l/m 0 min 2 min 0 W/m 9,7 km/h (2 Bft) 95,74 %
14.07.2021 05:46 18,6 C 17,8 C 21,1 C 100 % 1008,9 hPa 0,0 l/m 0 min 2 min 0 W/m 12,9 km/h (3 Bft) 97,87 %
14.07.2021 05:48 18,6 C 17,8 C 21,1 C 100 % 1008,9 hPa 0,0 l/m 0 min 2 min 0 W/m 12,9 km/h (3 Bft) 95,65 %
14.07.2021 05:50 18,6 C 17,8 C 21,1 C 100 % 1008,9 hPa 0,2 l/m 0 min 2 min 0 W/m 12,9 km/h (3 Bft) 93,62 %
14.07.2021 05:52 18,6 C 17,8 C 21,1 C 100 % 1008,9 hPa 0,0 l/m 0 min 2 min 0 W/m 6,4 km/h (2 Bft) 97,87 %
14.07.2021 05:54 18,6 C 17,8 C 21,1 C 100 % 1008,9 hPa 0,0 l/m 0 min 2 min 0 W/m 9,7 km/h (2 Bft) 100,00 %
14.07.2021 05:56 18,6 C 17,8 C 21,1 C 100 % 1008,9 hPa 0,0 l/m 0 min 2 min 0 W/m 12,9 km/h (3 Bft) 100,00 %
14.07.2021 05:58 18,6 C 17,8 C 21,1 C 100 % 1009,0 hPa 0,0 l/m 0 min 2 min 0 W/m 9,7 km/h (2 Bft) 97,87 %
14.07.2021 06:00 18,6 C 17,8 C 21,1 C 100 % 1009,0 hPa 0,0 l/m 0 min 2 min 0 W/m 16,1 km/h (3 Bft) 97,83 %
14.07.2021 06:02 18,6 C 17,8 C 21,1 C 100 % 1008,9 hPa 0,2 l/m 0 min 2 min 0 W/m 12,9 km/h (3 Bft) 100,00 %
14.07.2021 06:04 18,6 C 17,8 C 21,1 C 100 % 1009,0 hPa 0,0 l/m 0 min 2 min 0 W/m 12,9 km/h (3 Bft) 100,00 %
14.07.2021 06:08 18,6 C 17,8 C 21,1 C 100 % 1009,0 hPa 0,2 l/m 0 min 4 min 1 W/m 12,9 km/h (3 Bft) 100,00 %
14.07.2021 06:10 18,6 C 17,8 C 21,1 C 100 % 1009,0 hPa 0,0 l/m 0 min 2 min 1 W/m 12,9 km/h (3 Bft) 97,87 %
14.07.2021 06:12 18,6 C 17,8 C 21,1 C 100 % 1009,0 hPa 0,2 l/m 0 min 2 min 0 W/m 16,1 km/h (3 Bft) 100,00 %
14.07.2021 06:14 18,6 C 17,8 C 21,1 C 100 % 1009,0 hPa 0,0 l/m 0 min 2 min 0 W/m 9,7 km/h (2 Bft) 100,00 %
14.07.2021 06:16 18,6 C 17,8 C 21,1 C 100 % 1008,9 hPa 0,0 l/m 0 min 2 min 5 W/m 12,9 km/h (3 Bft) 100,00 %
14.07.2021 06:18 18,6 C 17,8 C 21,1 C 100 % 1008,9 hPa 0,2 l/m 0 min 2 min 5 W/m 9,7 km/h (2 Bft) 100,00 %
14.07.2021 06:20 18,6 C 17,8 C 21,1 C 100 % 1008,9 hPa 0,0 l/m 0 min 2 min 5 W/m 9,7 km/h (2 Bft) 100,00 %
14.07.2021 06:22 18,6 C 17,8 C 21,1 C 100 % 1008,9 hPa 0,2 l/m 0 min 2 min 5 W/m 12,9 km/h (3 Bft) 100,00 %
14.07.2021 06:24 18,6 C 17,8 C 21,1 C 100 % 1008,9 hPa 0,0 l/m 0 min 2 min 5 W/m 9,7 km/h (2 Bft) 100,00 %
14.07.2021 06:26 18,6 C 17,8 C 21,1 C 100 % 1008,9 hPa 0,2 l/m 0 min 2 min 5 W/m 12,9 km/h (3 Bft) 100,00 %
14.07.2021 06:28 18,5 C 17,8 C 21,1 C 100 % 1008,9 hPa 0,0 l/m 0 min 2 min 6 W/m 12,9 km/h (3 Bft) 97,87 %
14.07.2021 06:30 18,6 C 17,8 C 21,1 C 100 % 1008,9 hPa 0,2 l/m 0 min 2 min 7 W/m 12,9 km/h (3 Bft) 100,00 %
14.07.2021 06:32 18,5 C 17,8 C 21,1 C 100 % 1008,8 hPa 0,0 l/m 0 min 2 min 7 W/m 12,9 km/h (3 Bft) 100,00 %
14.07.2021 06:34 18,5 C 17,8 C 21,1 C 100 % 1008,8 hPa 0,0 l/m 0 min 2 min 8 W/m 12,9 km/h (3 Bft) 100,00 %
14.07.2021 06:36 18,5 C 17,8 C 21,1 C 100 % 1008,9 hPa 0,2 l/m 0 min 2 min 9 W/m 12,9 km/h (3 Bft) 100,00 %
14.07.2021 06:38 18,5 C 17,8 C 21,1 C 100 % 1008,9 hPa 0,0 l/m 0 min 2 min 10 W/m 16,1 km/h (3 Bft) 100,00 %
14.07.2021 06:40 18,5 C 17,8 C 21,1 C 100 % 1008,9 hPa 0,2 l/m 0 min 2 min 9 W/m 16,1 km/h (3 Bft) 100,00 %
14.07.2021 06:42 18,5 C 17,8 C 21,1 C 100 % 1008,9 hPa 0,0 l/m 0 min 2 min 8 W/m 12,9 km/h (3 Bft) 100,00 %
14.07.2021 06:44 18,5 C 17,8 C 21,1 C 100 % 1008,9 hPa 0,2 l/m 0 min 2 min 9 W/m 9,7 km/h (2 Bft) 100,00 %
14.07.2021 06:46 18,5 C 17,8 C 21,1 C 100 % 1008,9 hPa 0,0 l/m 0 min 2 min 9 W/m 9,7 km/h (2 Bft) 97,83 %
14.07.2021 06:48 18,5 C 17,8 C 21,1 C 100 % 1008,9 hPa 0,0 l/m 0 min 2 min 10 W/m 12,9 km/h (3 Bft) 100,00 %
14.07.2021 06:50 18,5 C 17,8 C 21,1 C 100 % 1008,9 hPa 0,2 l/m 0 min 2 min 9 W/m 12,9 km/h (3 Bft) 100,00 %
14.07.2021 06:52 18,5 C 17,8 C 21,1 C 100 % 1008,9 hPa 0,0 l/m 0 min 2 min 9 W/m 6,4 km/h (2 Bft) 100,00 %
14.07.2021 06:54 18,5 C 17,8 C 21,1 C 100 % 1009,0 hPa 0,0 l/m 0 min 2 min 10 W/m 9,7 km/h (2 Bft) 100,00 %
14.07.2021 06:56 18,5 C 17,8 C 21,1 C 100 % 1009,0 hPa 0,0 l/m 0 min 2 min 10 W/m 19,3 km/h (3 Bft) 100,00 %
14.07.2021 06:58 18,5 C 17,8 C 21,1 C 100 % 1009,0 hPa 0,2 l/m 0 min 2 min 11 W/m 19,3 km/h (3 Bft) 100,00 %
14.07.2021 07:00 18,5 C 17,8 C 21,1 C 100 % 1009,0 hPa 0,0 l/m 0 min 2 min 9 W/m 19,3 km/h (3 Bft) 100,00 %
14.07.2021 07:02 18,5 C 17,8 C 21,1 C 100 % 1009,0 hPa 0,0 l/m 0 min 2 min 7 W/m 9,7 km/h (2 Bft) 97,87 %
14.07.2021 07:04 18,5 C 17,8 C 21,1 C 100 % 1009,0 hPa 0,0 l/m 0 min 2 min 8 W/m 9,7 km/h (2 Bft) 100,00 %
14.07.2021 07:06 18,5 C 17,8 C 21,1 C 100 % 1009,0 hPa 0,0 l/m 0 min 2 min 9 W/m 19,3 km/h (3 Bft) 100,00 %
14.07.2021 07:08 18,5 C 17,8 C 21,1 C 100 % 1009,0 hPa 0,0 l/m 0 min 2 min 8 W/m 6,4 km/h (2 Bft) 95,74 %
14.07.2021 07:10 18,5 C 17,8 C 21,1 C 100 % 1008,9 hPa 0,2 l/m 0 min 2 min 8 W/m 16,1 km/h (3 Bft) 100,00 %
14.07.2021 07:12 18,5 C 17,8 C 21,1 C 100 % 1009,0 hPa 0,0 l/m 0 min 2 min 9 W/m 6,4 km/h (2 Bft) 97,83 %
14.07.2021 07:14 18,5 C 17,8 C 21,7 C 100 % 1009,0 hPa 0,0 l/m 0 min 2 min 9 W/m 9,7 km/h (2 Bft) 97,87 %
14.07.2021 07:16 18,5 C 17,8 C 21,1 C 100 % 1009,0 hPa 0,0 l/m 0 min 0 min 10 W/m 16,1 km/h (3 Bft) 100,00 %
14.07.2021 07:18 18,5 C 17,8 C 21,1 C 100 % 1009,0 hPa 0,0 l/m 0 min 2 min 10 W/m 12,9 km/h (3 Bft) 100,00 %
14.07.2021 07:20 18,5 C 17,8 C 21,1 C 100 % 1009,0 hPa 0,2 l/m 0 min 2 min 11 W/m 9,7 km/h (2 Bft) 98,31 %
14.07.2021 07:22 18,5 C 17,8 C 21,7 C 100 % 1009,0 hPa 0,0 l/m 0 min 2 min 12 W/m 9,7 km/h (2 Bft) 97,83 %
14.07.2021 07:24 18,5 C 17,8 C 21,1 C 100 % 1009,1 hPa 0,0 l/m 0 min 2 min 15 W/m 9,7 km/h (2 Bft) 100,00 %
14.07.2021 07:26 18,5 C 17,8 C 21,7 C 100 % 1009,0 hPa 0,0 l/m 0 min 2 min 15 W/m 16,1 km/h (3 Bft) 100,00 %
14.07.2021 07:28 18,5 C 17,8 C 21,7 C 100 % 1009,1 hPa 0,2 l/m 0 min 2 min 17 W/m 12,9 km/h (3 Bft) 100,00 %
14.07.2021 07:30 18,5 C 17,8 C 21,7 C 100 % 1009,1 hPa 0,0 l/m 0 min 2 min 20 W/m 12,9 km/h (3 Bft) 98,31 %
14.07.2021 07:32 18,5 C 17,8 C 21,7 C 100 % 1009,1 hPa 0,0 l/m 0 min 2 min 20 W/m 22,5 km/h (4 Bft) 97,14 %
14.07.2021 07:34 18,5 C 17,8 C 21,7 C 100 % 1009,1 hPa 0,0 l/m 0 min 2 min 21 W/m 16,1 km/h (3 Bft) 100,00 %
14.07.2021 07:36 18,5 C 17,8 C 21,7 C 100 % 1009,2 hPa 0,0 l/m 0 min 2 min 20 W/m 6,4 km/h (2 Bft) 100,00 %
14.07.2021 07:38 18,5 C 17,8 C 21,7 C 100 % 1009,2 hPa 0,0 l/m 0 min 2 min 23 W/m 12,9 km/h (3 Bft) 100,00 %
14.07.2021 07:40 18,5 C 17,8 C 21,7 C 100 % 1009,2 hPa 0,0 l/m 0 min 2 min 26 W/m 12,9 km/h (3 Bft) 97,87 %
14.07.2021 07:42 18,5 C 17,8 C 21,7 C 100 % 1009,2 hPa 0,2 l/m 0 min 2 min 28 W/m 16,1 km/h (3 Bft) 97,87 %
14.07.2021 07:44 18,5 C 17,8 C 21,7 C 100 % 1009,2 hPa 0,0 l/m 0 min 0 min 32 W/m 9,7 km/h (2 Bft) 93,62 %
14.07.2021 07:46 18,5 C 17,8 C 21,7 C 100 % 1009,2 hPa 0,0 l/m 0 min 0 min 30 W/m 12,9 km/h (3 Bft) 97,83 %
14.07.2021 07:48 18,5 C 17,8 C 21,7 C 100 % 1009,2 hPa 0,0 l/m 0 min 2 min 30 W/m 12,9 km/h (3 Bft) 97,87 %
14.07.2021 07:50 18,5 C 17,8 C 21,7 C 100 % 1009,2 hPa 0,0 l/m 0 min 2 min 29 W/m 25,7 km/h (4 Bft) 97,87 %
14.07.2021 07:52 18,5 C 17,8 C 21,7 C 100 % 1009,2 hPa 0,0 l/m 0 min 2 min 32 W/m 19,3 km/h (3 Bft) 100,00 %
14.07.2021 07:54 18,5 C 17,8 C 21,7 C 100 % 1009,2 hPa 0,2 l/m 0 min 2 min 28 W/m 9,7 km/h (2 Bft) 95,74 %
14.07.2021 07:56 18,5 C 17,8 C 21,7 C 100 % 1009,2 hPa 0,0 l/m 0 min 2 min 25 W/m 16,1 km/h (3 Bft) 95,74 %
14.07.2021 07:58 18,5 C 17,8 C 21,7 C 100 % 1009,2 hPa 0,0 l/m 0 min 2 min 21 W/m 9,7 km/h (2 Bft) 95,65 %
14.07.2021 08:00 18,5 C 17,8 C 21,7 C 100 % 1009,2 hPa 0,0 l/m 0 min 0 min 24 W/m 12,9 km/h (3 Bft) 95,74 %
14.07.2021 08:02 18,5 C 17,8 C 21,7 C 100 % 1009,2 hPa 0,2 l/m 0 min 0 min 24 W/m 22,5 km/h (4 Bft) 94,29 %
14.07.2021 08:04 18,5 C 17,8 C 21,7 C 100 % 1009,2 hPa 0,0 l/m 0 min 0 min 24 W/m 9,7 km/h (2 Bft) 95,74 %
14.07.2021 08:06 18,5 C 17,8 C 21,7 C 100 % 1009,2 hPa 0,0 l/m 0 min 2 min 20 W/m 9,7 km/h (2 Bft) 95,74 %
14.07.2021 08:08 18,5 C 17,8 C 21,7 C 100 % 1009,2 hPa 0,0 l/m 0 min 2 min 22 W/m 9,7 km/h (2 Bft) 93,62 %
14.07.2021 08:10 18,5 C 17,8 C 21,7 C 100 % 1009,2 hPa 0,0 l/m 0 min 2 min 25 W/m 12,9 km/h (3 Bft) 95,74 %
14.07.2021 08:12 18,5 C 17,8 C 21,7 C 100 % 1009,2 hPa 0,0 l/m 0 min 0 min 24 W/m 12,9 km/h (3 Bft) 95,74 %
14.07.2021 08:14 18,5 C 17,8 C 21,7 C 100 % 1009,2 hPa 0,0 l/m 0 min 0 min 30 W/m 22,5 km/h (4 Bft) 95,65 %
14.07.2021 08:16 18,5 C 17,8 C 21,7 C 100 % 1009,1 hPa 0,0 l/m 0 min 0 min 32 W/m 16,1 km/h (3 Bft) 95,74 %
14.07.2021 08:18 18,5 C 17,8 C 21,7 C 100 % 1009,1 hPa 0,0 l/m 0 min 0 min 34 W/m 16,1 km/h (3 Bft) 93,62 %
14.07.2021 08:20 18,5 C 17,8 C 21,7 C 100 % 1009,1 hPa 0,0 l/m 0 min 0 min 33 W/m 12,9 km/h (3 Bft) 95,74 %
14.07.2021 08:22 18,5 C 17,8 C 21,7 C 100 % 1009,2 hPa 0,2 l/m 0 min 0 min 32 W/m 9,7 km/h (2 Bft) 95,74 %
14.07.2021 08:24 18,6 C 17,8 C 21,7 C 100 % 1009,2 hPa 0,0 l/m 0 min 0 min 34 W/m 9,7 km/h (2 Bft) 93,62 %
14.07.2021 08:26 18,6 C 17,8 C 21,7 C 100 % 1009,2 hPa 0,0 l/m 0 min 2 min 35 W/m 16,1 km/h (3 Bft) 95,65 %
14.07.2021 08:28 18,6 C 17,8 C 21,7 C 100 % 1009,2 hPa 0,0 l/m 0 min 0 min 41 W/m 19,3 km/h (3 Bft) 95,74 %
14.07.2021 08:30 18,6 C 17,8 C 21,7 C 100 % 1009,2 hPa 0,0 l/m 0 min 0 min 45 W/m 12,9 km/h (3 Bft) 95,74 %
14.07.2021 08:32 18,6 C 17,8 C 21,7 C 100 % 1009,2 hPa 0,0 l/m 0 min 2 min 45 W/m 9,7 km/h (2 Bft) 95,74 %
14.07.2021 08:34 18,6 C 17,8 C 21,7 C 100 % 1009,2 hPa 0,2 l/m 0 min 2 min 43 W/m 16,1 km/h (3 Bft) 97,87 %
14.07.2021 08:36 18,6 C 17,8 C 21,7 C 100 % 1009,2 hPa 0,0 l/m 0 min 2 min 43 W/m 12,9 km/h (3 Bft) 95,74 %
14.07.2021 08:38 18,6 C 17,8 C 21,7 C 100 % 1009,2 hPa 0,0 l/m 0 min 2 min 49 W/m 16,1 km/h (3 Bft) 95,65 %
14.07.2021 08:40 18,6 C 17,8 C 21,7 C 100 % 1009,2 hPa 0,0 l/m 0 min 2 min 56 W/m 6,4 km/h (2 Bft) 100,00 %
14.07.2021 08:42 18,6 C 17,8 C 21,7 C 100 % 1009,2 hPa 0,2 l/m 0 min 2 min 54 W/m 22,5 km/h (4 Bft) 93,62 %
14.07.2021 08:44 18,6 C 17,8 C 21,7 C 100 % 1009,2 hPa 0,0 l/m 0 min 2 min 62 W/m 12,9 km/h (3 Bft) 100,00 %
14.07.2021 08:46 18,6 C 17,8 C 21,7 C 100 % 1009,2 hPa 0,0 l/m 0 min 2 min 55 W/m 12,9 km/h (3 Bft) 100,00 %
14.07.2021 08:48 18,6 C 17,8 C 21,7 C 100 % 1009,2 hPa 0,0 l/m 0 min 2 min 46 W/m 12,9 km/h (3 Bft) 100,00 %
14.07.2021 08:50 18,6 C 17,8 C 21,7 C 100 % 1009,2 hPa 0,2 l/m 0 min 2 min 40 W/m 19,3 km/h (3 Bft) 100,00 %
14.07.2021 08:52 18,6 C 17,8 C 21,7 C 100 % 1009,2 hPa 0,0 l/m 0 min 2 min 35 W/m 9,7 km/h (2 Bft) 97,87 %
14.07.2021 08:55 18,6 C 17,8 C 21,7 C 100 % 1009,2 hPa 0,0 l/m 0 min 3 min 33 W/m 16,1 km/h (3 Bft) 100,00 %
14.07.2021 08:56 18,6 C 17,8 C 21,7 C 100 % 1009,2 hPa 0,0 l/m 0 min 1 min 32 W/m 16,1 km/h (3 Bft) 100,00 %
14.07.2021 08:58 18,6 C 17,8 C 21,7 C 100 % 1009,3 hPa 0,0 l/m 0 min 2 min 38 W/m 9,7 km/h (2 Bft) 100,00 %
14.07.2021 09:00 18,6 C 17,8 C 21,7 C 100 % 1009,3 hPa 0,0 l/m 0 min 2 min 40 W/m 12,9 km/h (3 Bft) 100,00 %
14.07.2021 09:02 18,6 C 17,8 C 21,7 C 100 % 1009,3 hPa 0,0 l/m 0 min 2 min 38 W/m 19,3 km/h (3 Bft) 97,83 %
14.07.2021 09:04 18,6 C 17,8 C 21,7 C 100 % 1009,3 hPa 0,0 l/m 0 min 2 min 37 W/m 19,3 km/h (3 Bft) 97,87 %
14.07.2021 09:06 18,6 C 17,8 C 21,7 C 100 % 1009,3 hPa 0,2 l/m 0 min 2 min 40 W/m 9,7 km/h (2 Bft) 100,00 %
14.07.2021 09:08 18,6 C 17,8 C 21,7 C 100 % 1009,3 hPa 0,0 l/m 0 min 2 min 40 W/m 12,9 km/h (3 Bft) 100,00 %
14.07.2021 09:10 18,6 C 17,8 C 21,7 C 100 % 1009,3 hPa 0,0 l/m 0 min 2 min 38 W/m 9,7 km/h (2 Bft) 97,87 %
14.07.2021 09:12 18,6 C 17,8 C 21,7 C 100 % 1009,3 hPa 0,0 l/m 0 min 2 min 36 W/m 16,1 km/h (3 Bft) 100,00 %
14.07.2021 09:14 18,6 C 17,8 C 21,7 C 100 % 1009,3 hPa 0,2 l/m 0 min 2 min 42 W/m 6,4 km/h (2 Bft) 100,00 %
14.07.2021 09:16 18,6 C 17,8 C 21,7 C 100 % 1009,4 hPa 0,0 l/m 0 min 2 min 38 W/m 19,3 km/h (3 Bft) 100,00 %
14.07.2021 09:18 18,5 C 17,8 C 21,7 C 100 % 1009,4 hPa 0,0 l/m 0 min 2 min 44 W/m 16,1 km/h (3 Bft) 97,87 %
14.07.2021 09:20 18,6 C 17,8 C 21,7 C 100 % 1009,4 hPa 0,0 l/m 0 min 2 min 34 W/m 16,1 km/h (3 Bft) 97,87 %
14.07.2021 09:22 18,5 C 17,8 C 21,7 C 100 % 1009,4 hPa 0,2 l/m 0 min 0 min 35 W/m 22,5 km/h (4 Bft) 100,00 %
14.07.2021 09:24 18,5 C 17,8 C 21,7 C 100 % 1009,3 hPa 0,0 l/m 0 min 2 min 33 W/m 12,9 km/h (3 Bft) 97,87 %
14.07.2021 09:26 18,5 C 17,8 C 21,7 C 100 % 1009,4 hPa 0,0 l/m 0 min 0 min 32 W/m 16,1 km/h (3 Bft) 100,00 %
14.07.2021 09:28 18,5 C 17,8 C 21,7 C 100 % 1009,3 hPa 0,0 l/m 0 min 2 min 35 W/m 16,1 km/h (3 Bft) 97,87 %
14.07.2021 09:30 18,5 C 17,8 C 22,3 C 100 % 1009,3 hPa 0,0 l/m 0 min 2 min 34 W/m 16,1 km/h (3 Bft) 97,87 %
14.07.2021 09:32 18,5 C 17,8 C 21,7 C 100 % 1009,4 hPa 0,0 l/m 0 min 2 min 38 W/m 16,1 km/h (3 Bft) 100,00 %
14.07.2021 09:34 18,5 C 17,8 C 21,7 C 100 % 1009,4 hPa 0,0 l/m 0 min 2 min 37 W/m 9,7 km/h (2 Bft) 97,87 %
14.07.2021 09:36 18,5 C 17,8 C 21,7 C 100 % 1009,5 hPa 0,2 l/m 0 min 2 min 34 W/m 12,9 km/h (3 Bft) 97,87 %
14.07.2021 09:38 18,5 C 17,8 C 21,7 C 100 % 1009,4 hPa 0,0 l/m 0 min 2 min 30 W/m 16,1 km/h (3 Bft) 100,00 %
14.07.2021 09:40 18,5 C 17,8 C 21,7 C 100 % 1009,4 hPa 0,0 l/m 0 min 2 min 30 W/m 16,1 km/h (3 Bft) 97,87 %
14.07.2021 09:42 18,5 C 17,8 C 21,7 C 100 % 1009,5 hPa 0,0 l/m 0 min 2 min 28 W/m 12,9 km/h (3 Bft) 100,00 %
14.07.2021 09:44 18,5 C 17,8 C 22,3 C 100 % 1009,5 hPa 0,0 l/m 0 min 2 min 28 W/m 9,7 km/h (2 Bft) 95,74 %
14.07.2021 09:46 18,5 C 17,8 C 21,7 C 100 % 1009,4 hPa 0,0 l/m 0 min 2 min 33 W/m 19,3 km/h (3 Bft) 95,74 %
14.07.2021 09:48 18,5 C 17,8 C 21,7 C 100 % 1009,5 hPa 0,0 l/m 0 min 2 min 36 W/m 16,1 km/h (3 Bft) 96,00 %
14.07.2021 09:50 18,5 C 17,8 C 21,7 C 100 % 1009,4 hPa 0,2 l/m 0 min 2 min 38 W/m 12,9 km/h (3 Bft) 97,87 %
14.07.2021 09:52 18,5 C 17,8 C 21,7 C 100 % 1009,4 hPa 0,0 l/m 0 min 2 min 43 W/m 19,3 km/h (3 Bft) 97,87 %
14.07.2021 09:54 18,5 C 17,8 C 21,7 C 100 % 1009,4 hPa 0,2 l/m 0 min 2 min 53 W/m 16,1 km/h (3 Bft) 97,87 %
14.07.2021 09:56 18,4 C 17,8 C 21,7 C 100 % 1009,3 hPa 0,0 l/m 0 min 2 min 65 W/m 16,1 km/h (3 Bft) 97,87 %
14.07.2021 09:58 18,4 C 17,8 C 22,3 C 100 % 1009,3 hPa 0,0 l/m 0 min 2 min 71 W/m 22,5 km/h (4 Bft) 97,87 %
14.07.2021 10:00 18,4 C 17,8 C 22,3 C 100 % 1009,4 hPa 0,2 l/m 0 min 2 min 72 W/m 12,9 km/h (3 Bft) 100,00 %
14.07.2021 10:02 18,4 C 17,8 C 22,3 C 100 % 1009,3 hPa 0,0 l/m 0 min 2 min 84 W/m 16,1 km/h (3 Bft) 97,22 %
14.07.2021 10:04 18,4 C 17,8 C 21,7 C 100 % 1009,3 hPa 0,2 l/m 0 min 2 min 89 W/m 22,5 km/h (4 Bft) 97,87 %
14.07.2021 10:06 18,4 C 17,8 C 22,3 C 100 % 1009,3 hPa 0,0 l/m 0 min 2 min 82 W/m 19,3 km/h (3 Bft) 98,31 %
14.07.2021 10:08 18,4 C 17,8 C 22,3 C 100 % 1009,4 hPa 0,0 l/m 0 min 2 min 81 W/m 12,9 km/h (3 Bft) 97,83 %
14.07.2021 10:10 18,5 C 17,8 C 22,3 C 100 % 1009,4 hPa 0,2 l/m 0 min 2 min 79 W/m 19,3 km/h (3 Bft) 100,00 %
14.07.2021 10:12 18,5 C 17,8 C 22,3 C 100 % 1009,4 hPa 0,0 l/m 0 min 2 min 70 W/m 16,1 km/h (3 Bft) 97,83 %
14.07.2021 10:14 18,5 C 17,8 C 22,3 C 100 % 1009,3 hPa 0,0 l/m 0 min 2 min 75 W/m 16,1 km/h (3 Bft) 95,74 %
14.07.2021 10:16 18,5 C 17,8 C 22,3 C 100 % 1009,4 hPa 0,2 l/m 0 min 2 min 60 W/m 16,1 km/h (3 Bft) 97,87 %
14.07.2021 10:18 18,5 C 17,8 C 22,3 C 100 % 1009,3 hPa 0,0 l/m 0 min 2 min 73 W/m 16,1 km/h (3 Bft) 97,87 %
14.07.2021 10:20 18,5 C 17,8 C 22,3 C 100 % 1009,3 hPa 0,0 l/m 0 min 2 min 93 W/m 19,3 km/h (3 Bft) 100,00 %
14.07.2021 10:22 18,5 C 17,8 C 22,3 C 100 % 1009,3 hPa 0,0 l/m 0 min 2 min 90 W/m 12,9 km/h (3 Bft) 97,87 %
14.07.2021 10:24 18,5 C 17,8 C 22,3 C 100 % 1009,3 hPa 0,0 l/m 0 min 2 min 88 W/m 16,1 km/h (3 Bft) 97,83 %
14.07.2021 10:26 18,5 C 17,8 C 22,3 C 100 % 1009,3 hPa 0,0 l/m 0 min 2 min 82 W/m 16,1 km/h (3 Bft) 97,87 %
14.07.2021 10:28 18,5 C 17,8 C 22,3 C 100 % 1009,3 hPa 0,0 l/m 0 min 2 min 68 W/m 16,1 km/h (3 Bft) 95,74 %
14.07.2021 10:30 18,5 C 17,8 C 22,3 C 100 % 1009,3 hPa 0,0 l/m 0 min 0 min 59 W/m 12,9 km/h (3 Bft) 97,87 %
14.07.2021 10:32 18,5 C 17,8 C 22,3 C 100 % 1009,4 hPa 0,0 l/m 0 min 2 min 50 W/m 16,1 km/h (3 Bft) 97,87 %
14.07.2021 10:34 18,5 C 17,8 C 22,3 C 100 % 1009,3 hPa 0,0 l/m 0 min 2 min 61 W/m 12,9 km/h (3 Bft) 97,87 %
14.07.2021 10:36 18,5 C 17,8 C 22,3 C 100 % 1009,3 hPa 0,0 l/m 0 min 2 min 85 W/m 12,9 km/h (3 Bft) 95,65 %
14.07.2021 10:38 18,4 C 17,8 C 22,3 C 100 % 1009,3 hPa 0,0 l/m 0 min 2 min 91 W/m 22,5 km/h (4 Bft) 95,74 %
14.07.2021 10:40 18,4 C 17,8 C 22,3 C 100 % 1009,3 hPa 0,2 l/m 0 min 2 min 102 W/m 12,9 km/h (3 Bft) 93,10 %
14.07.2021 10:42 18,4 C 17,8 C 22,3 C 100 % 1009,3 hPa 0,0 l/m 0 min 2 min 107 W/m 19,3 km/h (3 Bft) 93,62 %
14.07.2021 10:44 18,4 C 17,8 C 22,3 C 100 % 1009,3 hPa 0,0 l/m 0 min 2 min 115 W/m 9,7 km/h (2 Bft) 93,62 %
14.07.2021 10:46 18,4 C 17,8 C 22,3 C 100 % 1009,3 hPa 0,0 l/m 0 min 2 min 101 W/m 19,3 km/h (3 Bft) 93,62 %
14.07.2021 10:48 18,5 C 17,8 C 22,3 C 100 % 1009,4 hPa 0,0 l/m 0 min 2 min 93 W/m 16,1 km/h (3 Bft) 93,48 %
14.07.2021 10:50 18,5 C 17,8 C 22,3 C 100 % 1009,4 hPa 0,0 l/m 0 min 2 min 111 W/m 22,5 km/h (4 Bft) 93,62 %
14.07.2021 10:52 18,5 C 17,8 C 22,3 C 100 % 1009,4 hPa 0,0 l/m 0 min 2 min 103 W/m 19,3 km/h (3 Bft) 93,62 %
14.07.2021 10:54 18,5 C 17,8 C 22,3 C 100 % 1009,4 hPa 0,2 l/m 0 min 2 min 78 W/m 12,9 km/h (3 Bft) 93,62 %
14.07.2021 10:56 18,4 C 17,8 C 22,3 C 100 % 1009,3 hPa 0,4 l/m 0 min 2 min 52 W/m 12,9 km/h (3 Bft) 91,49 %
14.07.2021 10:58 18,4 C 17,2 C 22,3 C 100 % 1009,3 hPa 0,2 l/m 0 min 2 min 45 W/m 25,7 km/h (4 Bft) 93,62 %
14.07.2021 11:00 18,4 C 17,2 C 22,3 C 100 % 1009,3 hPa 0,2 l/m 0 min 2 min 40 W/m 22,5 km/h (4 Bft) 89,13 %
14.07.2021 11:02 18,4 C 17,2 C 22,3 C 100 % 1009,2 hPa 0,6 l/m 0 min 2 min 39 W/m 25,7 km/h (4 Bft) 93,75 %
14.07.2021 11:04 18,3 C 17,2 C 22,3 C 100 % 1009,2 hPa 1,0 l/m 0 min 2 min 41 W/m 25,7 km/h (4 Bft) 93,62 %
14.07.2021 11:06 18,3 C 17,2 C 22,3 C 100 % 1009,2 hPa 0,4 l/m 0 min 2 min 42 W/m 25,7 km/h (4 Bft) 93,62 %
14.07.2021 11:08 18,3 C 17,2 C 21,7 C 100 % 1009,2 hPa 0,6 l/m 0 min 2 min 36 W/m 19,3 km/h (3 Bft) 95,65 %
14.07.2021 11:10 18,3 C 17,2 C 22,3 C 100 % 1009,2 hPa 0,2 l/m 0 min 2 min 34 W/m 19,3 km/h (3 Bft) 93,62 %
14.07.2021 11:12 18,3 C 17,2 C 22,3 C 100 % 1009,2 hPa 0,0 l/m 0 min 2 min 38 W/m 12,9 km/h (3 Bft) 93,62 %
14.07.2021 11:14 18,3 C 17,2 C 22,3 C 100 % 1009,2 hPa 0,2 l/m 0 min 2 min 36 W/m 22,5 km/h (4 Bft) 89,36 %
14.07.2021 11:16 18,3 C 17,2 C 22,3 C 100 % 1009,3 hPa 0,2 l/m 0 min 2 min 29 W/m 19,3 km/h (3 Bft) 93,62 %
14.07.2021 11:18 18,2 C 17,2 C 22,3 C 100 % 1009,3 hPa 0,4 l/m 0 min 2 min 26 W/m 19,3 km/h (3 Bft) 93,48 %
14.07.2021 11:20 18,2 C 17,2 C 21,7 C 100 % 1009,3 hPa 0,2 l/m 0 min 2 min 28 W/m 19,3 km/h (3 Bft) 93,62 %
14.07.2021 11:22 18,2 C 17,2 C 21,7 C 100 % 1009,2 hPa 0,6 l/m 0 min 2 min 31 W/m 19,3 km/h (3 Bft) 93,62 %
14.07.2021 11:24 18,2 C 17,2 C 22,3 C 100 % 1009,2 hPa 0,2 l/m 0 min 2 min 31 W/m 19,3 km/h (3 Bft) 93,62 %
14.07.2021 11:26 18,2 C 17,2 C 22,3 C 100 % 1009,3 hPa 0,2 l/m 0 min 2 min 42 W/m 16,1 km/h (3 Bft) 95,74 %
14.07.2021 11:28 18,2 C 17,2 C 22,3 C 100 % 1009,3 hPa 0,4 l/m 0 min 2 min 62 W/m 12,9 km/h (3 Bft) 93,62 %
14.07.2021 11:30 18,3 C 17,2 C 22,3 C 100 % 1009,2 hPa 0,0 l/m 0 min 2 min 71 W/m 16,1 km/h (3 Bft) 95,65 %
14.07.2021 11:32 18,3 C 17,2 C 22,3 C 100 % 1009,1 hPa 0,2 l/m 0 min 2 min 83 W/m 19,3 km/h (3 Bft) 97,87 %
14.07.2021 11:34 18,3 C 17,2 C 22,3 C 100 % 1009,1 hPa 0,0 l/m 0 min 2 min 85 W/m 12,9 km/h (3 Bft) 97,87 %
14.07.2021 11:36 18,3 C 17,2 C 22,3 C 100 % 1009,2 hPa 0,2 l/m 0 min 2 min 57 W/m 16,1 km/h (3 Bft) 97,87 %
14.07.2021 11:38 18,3 C 17,2 C 22,3 C 100 % 1009,2 hPa 0,2 l/m 0 min 2 min 48 W/m 12,9 km/h (3 Bft) 97,87 %
14.07.2021 11:40 18,3 C 17,2 C 22,3 C 100 % 1009,2 hPa 0,2 l/m 0 min 2 min 61 W/m 19,3 km/h (3 Bft) 97,87 %
14.07.2021 11:42 18,3 C 17,2 C 22,3 C 100 % 1009,2 hPa 0,0 l/m 0 min 0 min 67 W/m 16,1 km/h (3 Bft) 97,83 %
14.07.2021 11:44 18,4 C 17,2 C 22,3 C 100 % 1009,2 hPa 0,0 l/m 0 min 0 min 73 W/m 19,3 km/h (3 Bft) 95,74 %
14.07.2021 11:46 18,4 C 17,8 C 22,3 C 100 % 1009,2 hPa 0,0 l/m 0 min 2 min 79 W/m 12,9 km/h (3 Bft) 97,87 %
14.07.2021 11:48 18,4 C 17,8 C 22,3 C 100 % 1009,1 hPa 0,0 l/m 0 min 0 min 66 W/m 16,1 km/h (3 Bft) 97,87 %
14.07.2021 11:50 18,4 C 17,8 C 22,3 C 100 % 1009,2 hPa 0,0 l/m 0 min 0 min 47 W/m 16,1 km/h (3 Bft) 97,87 %
14.07.2021 11:52 18,4 C 17,8 C 22,3 C 100 % 1009,2 hPa 0,0 l/m 0 min 2 min 39 W/m 6,4 km/h (2 Bft) 95,74 %
14.07.2021 11:54 18,4 C 17,8 C 22,3 C 100 % 1009,2 hPa 0,0 l/m 0 min 2 min 44 W/m 12,9 km/h (3 Bft) 97,83 %
14.07.2021 11:56 18,4 C 17,8 C 22,3 C 100 % 1009,2 hPa 0,0 l/m 0 min 2 min 42 W/m 12,9 km/h (3 Bft) 97,87 %
14.07.2021 11:58 18,4 C 17,8 C 22,3 C 100 % 1009,2 hPa 0,2 l/m 0 min 2 min 49 W/m 6,4 km/h (2 Bft) 97,87 %
14.07.2021 12:00 18,4 C 17,8 C 22,3 C 100 % 1009,2 hPa 0,0 l/m 0 min 2 min 44 W/m 9,7 km/h (2 Bft) 97,87 %
14.07.2021 12:02 18,4 C 17,8 C 22,3 C 100 % 1009,2 hPa 0,2 l/m 0 min 2 min 37 W/m 22,5 km/h (4 Bft) 91,43 %
14.07.2021 12:04 18,4 C 17,2 C 22,3 C 100 % 1009,3 hPa 0,4 l/m 0 min 2 min 38 W/m 25,7 km/h (4 Bft) 97,87 %
14.07.2021 12:08 18,4 C 17,2 C 22,3 C 100 % 1009,2 hPa 0,8 l/m 0 min 4 min 42 W/m 19,3 km/h (3 Bft) 97,87 %
14.07.2021 12:10 18,4 C 17,2 C 22,3 C 100 % 1009,3 hPa 0,2 l/m 0 min 2 min 27 W/m 9,7 km/h (2 Bft) 93,48 %
14.07.2021 12:12 18,4 C 17,2 C 22,3 C 100 % 1009,3 hPa 0,8 l/m 0 min 2 min 27 W/m 19,3 km/h (3 Bft) 97,87 %
14.07.2021 12:14 18,4 C 17,2 C 22,3 C 100 % 1009,2 hPa 0,8 l/m 0 min 2 min 37 W/m 12,9 km/h (3 Bft) 97,87 %
14.07.2021 12:16 18,4 C 17,2 C 22,3 C 100 % 1009,2 hPa 1,2 l/m 0 min 2 min 47 W/m 19,3 km/h (3 Bft) 97,87 %
14.07.2021 12:18 18,3 C 17,2 C 22,3 C 100 % 1009,3 hPa 0,6 l/m 0 min 2 min 46 W/m 29,0 km/h (5 Bft) 97,87 %
14.07.2021 12:20 18,3 C 17,2 C 22,3 C 100 % 1009,2 hPa 0,0 l/m 0 min 2 min 42 W/m 19,3 km/h (3 Bft) 97,87 %
14.07.2021 12:22 18,3 C 17,2 C 22,3 C 100 % 1009,3 hPa 0,2 l/m 0 min 2 min 41 W/m 12,9 km/h (3 Bft) 97,83 %
14.07.2021 12:24 18,3 C 17,2 C 22,3 C 100 % 1009,3 hPa 0,2 l/m 0 min 2 min 48 W/m 12,9 km/h (3 Bft) 97,87 %
14.07.2021 12:26 18,3 C 17,2 C 22,3 C 100 % 1009,3 hPa 0,0 l/m 0 min 2 min 44 W/m 16,1 km/h (3 Bft) 95,74 %
14.07.2021 12:28 18,3 C 17,2 C 22,3 C 100 % 1009,2 hPa 0,0 l/m 0 min 0 min 48 W/m 9,7 km/h (2 Bft) 97,87 %
14.07.2021 12:30 18,3 C 17,2 C 22,3 C 100 % 1009,3 hPa 0,0 l/m 0 min 0 min 44 W/m 16,1 km/h (3 Bft) 97,87 %
14.07.2021 12:32 18,3 C 17,2 C 22,3 C 100 % 1009,3 hPa 0,2 l/m 0 min 2 min 42 W/m 19,3 km/h (3 Bft) 95,74 %
14.07.2021 12:34 18,3 C 17,2 C 22,3 C 100 % 1009,3 hPa 0,2 l/m 0 min 2 min 66 W/m 16,1 km/h (3 Bft) 97,83 %
14.07.2021 12:36 18,3 C 17,2 C 22,3 C 100 % 1009,3 hPa 0,2 l/m 0 min 2 min 46 W/m 16,1 km/h (3 Bft) 97,87 %
14.07.2021 12:38 18,3 C 17,2 C 22,3 C 100 % 1009,4 hPa 0,2 l/m 0 min 2 min 34 W/m 16,1 km/h (3 Bft) 97,87 %
14.07.2021 12:40 18,3 C 17,2 C 22,3 C 100 % 1009,4 hPa 0,0 l/m 0 min 2 min 37 W/m 9,7 km/h (2 Bft) 97,87 %
14.07.2021 12:42 18,3 C 17,2 C 22,8 C 100 % 1009,4 hPa 0,0 l/m 0 min 2 min 41 W/m 16,1 km/h (3 Bft) 97,87 %
14.07.2021 12:44 18,3 C 17,2 C 22,8 C 100 % 1009,4 hPa 0,0 l/m 0 min 2 min 37 W/m 12,9 km/h (3 Bft) 97,87 %
14.07.2021 12:46 18,4 C 17,8 C 22,3 C 100 % 1009,4 hPa 0,0 l/m 0 min 2 min 44 W/m 9,7 km/h (2 Bft) 93,48 %
14.07.2021 12:48 18,4 C 17,8 C 22,3 C 100 % 1009,4 hPa 0,2 l/m 0 min 2 min 56 W/m 6,4 km/h (2 Bft) 97,87 %
14.07.2021 12:50 18,4 C 17,2 C 22,3 C 100 % 1009,4 hPa 0,0 l/m 0 min 2 min 61 W/m 16,1 km/h (3 Bft) 97,87 %
14.07.2021 12:52 18,4 C 17,8 C 22,3 C 100 % 1009,4 hPa 0,0 l/m 0 min 2 min 56 W/m 16,1 km/h (3 Bft) 97,87 %
14.07.2021 12:54 18,4 C 17,8 C 22,8 C 100 % 1009,4 hPa 0,2 l/m 0 min 2 min 46 W/m 12,9 km/h (3 Bft) 95,74 %
14.07.2021 12:56 18,4 C 17,2 C 22,8 C 100 % 1009,4 hPa 0,0 l/m 0 min 2 min 51 W/m 12,9 km/h (3 Bft) 97,87 %
14.07.2021 12:58 18,4 C 17,2 C 22,8 C 100 % 1009,4 hPa 0,0 l/m 0 min 0 min 41 W/m 12,9 km/h (3 Bft) 95,65 %
14.07.2021 13:00 18,4 C 17,2 C 22,8 C 100 % 1009,4 hPa 0,0 l/m 0 min 2 min 37 W/m 12,9 km/h (3 Bft) 97,87 %
14.07.2021 13:02 18,4 C 17,2 C 22,8 C 100 % 1009,4 hPa 0,0 l/m 0 min 2 min 41 W/m 9,7 km/h (2 Bft) 97,87 %
14.07.2021 13:04 18,4 C 17,2 C 22,8 C 100 % 1009,4 hPa 0,0 l/m 0 min 2 min 45 W/m 16,1 km/h (3 Bft) 97,87 %
14.07.2021 13:06 18,4 C 17,8 C 22,8 C 100 % 1009,5 hPa 0,0 l/m 0 min 2 min 46 W/m 9,7 km/h (2 Bft) 97,87 %
14.07.2021 13:08 18,4 C 17,8 C 22,8 C 100 % 1009,4 hPa 0,0 l/m 0 min 2 min 42 W/m 16,1 km/h (3 Bft) 97,83 %
14.07.2021 13:10 18,4 C 17,2 C 22,8 C 100 % 1009,5 hPa 0,0 l/m 0 min 2 min 40 W/m 19,3 km/h (3 Bft) 97,87 %
14.07.2021 13:12 18,3 C 17,2 C 22,8 C 100 % 1009,4 hPa 0,0 l/m 0 min 2 min 44 W/m 16,1 km/h (3 Bft) 95,74 %
14.07.2021 13:14 18,3 C 17,2 C 22,8 C 100 % 1009,4 hPa 0,0 l/m 0 min 2 min 42 W/m 9,7 km/h (2 Bft) 95,74 %
14.07.2021 13:16 18,4 C 17,2 C 22,8 C 100 % 1009,4 hPa 0,0 l/m 0 min 2 min 43 W/m 19,3 km/h (3 Bft) 97,87 %
14.07.2021 13:18 18,4 C 17,8 C 22,8 C 100 % 1009,3 hPa 0,2 l/m 0 min 2 min 59 W/m 16,1 km/h (3 Bft) 97,87 %
14.07.2021 13:20 18,4 C 17,8 C 22,8 C 100 % 1009,3 hPa 0,2 l/m 0 min 2 min 91 W/m 16,1 km/h (3 Bft) 97,83 %
14.07.2021 13:22 18,4 C 17,8 C 22,8 C 100 % 1009,3 hPa 0,4 l/m 0 min 2 min 117 W/m 22,5 km/h (4 Bft) 95,74 %
14.07.2021 13:24 18,4 C 17,8 C 22,8 C 100 % 1009,3 hPa 0,4 l/m 0 min 2 min 128 W/m 16,1 km/h (3 Bft) 95,74 %
14.07.2021 13:26 18,4 C 17,8 C 22,8 C 100 % 1009,4 hPa 0,2 l/m 0 min 2 min 116 W/m 22,5 km/h (4 Bft) 95,74 %
14.07.2021 13:28 18,4 C 17,8 C 22,8 C 100 % 1009,4 hPa 0,2 l/m 0 min 2 min 74 W/m 12,9 km/h (3 Bft) 95,74 %
14.07.2021 13:30 18,4 C 17,8 C 22,8 C 100 % 1009,4 hPa 0,2 l/m 0 min 2 min 65 W/m 16,1 km/h (3 Bft) 95,74 %
14.07.2021 13:32 18,4 C 17,8 C 22,8 C 100 % 1009,4 hPa 0,0 l/m 0 min 2 min 65 W/m 16,1 km/h (3 Bft) 91,30 %
14.07.2021 13:34 18,4 C 17,8 C 22,8 C 100 % 1009,4 hPa 0,2 l/m 0 min 2 min 75 W/m 9,7 km/h (2 Bft) 95,74 %
14.07.2021 13:36 18,4 C 17,8 C 22,8 C 100 % 1009,4 hPa 0,2 l/m 0 min 2 min 58 W/m 19,3 km/h (3 Bft) 93,62 %
14.07.2021 13:38 18,4 C 17,8 C 22,8 C 100 % 1009,4 hPa 0,2 l/m 0 min 2 min 41 W/m 12,9 km/h (3 Bft) 95,74 %
14.07.2021 13:40 18,4 C 17,8 C 22,8 C 100 % 1009,3 hPa 0,0 l/m 0 min 2 min 38 W/m 12,9 km/h (3 Bft) 95,74 %
14.07.2021 13:42 18,4 C 17,8 C 22,8 C 100 % 1009,4 hPa 0,0 l/m 0 min 0 min 37 W/m 19,3 km/h (3 Bft) 93,62 %
14.07.2021 13:44 18,4 C 17,8 C 22,8 C 100 % 1009,3 hPa 0,0 l/m 0 min 0 min 38 W/m 25,7 km/h (4 Bft) 93,48 %
14.07.2021 13:46 18,4 C 17,2 C 22,8 C 100 % 1009,3 hPa 0,0 l/m 0 min 0 min 41 W/m 12,9 km/h (3 Bft) 93,62 %
14.07.2021 13:48 18,4 C 17,8 C 22,8 C 100 % 1009,4 hPa 0,0 l/m 0 min 0 min 40 W/m 19,3 km/h (3 Bft) 93,62 %
14.07.2021 13:50 18,4 C 17,8 C 22,8 C 100 % 1009,3 hPa 0,0 l/m 0 min 0 min 47 W/m 12,9 km/h (3 Bft) 89,36 %
14.07.2021 13:52 18,4 C 17,8 C 22,8 C 100 % 1009,3 hPa 0,0 l/m 0 min 0 min 46 W/m 16,1 km/h (3 Bft) 91,49 %
14.07.2021 13:54 18,4 C 17,8 C 22,8 C 100 % 1009,4 hPa 0,0 l/m 0 min 0 min 46 W/m 19,3 km/h (3 Bft) 91,49 %
14.07.2021 13:56 18,4 C 17,8 C 22,8 C 100 % 1009,4 hPa 0,0 l/m 0 min 0 min 39 W/m 16,1 km/h (3 Bft) 93,48 %
14.07.2021 13:58 18,4 C 17,8 C 22,8 C 100 % 1009,4 hPa 0,0 l/m 0 min 0 min 39 W/m 12,9 km/h (3 Bft) 95,74 %
14.07.2021 14:00 18,4 C 17,8 C 22,8 C 100 % 1009,4 hPa 0,2 l/m 0 min 0 min 33 W/m 16,1 km/h (3 Bft) 91,49 %
14.07.2021 14:02 18,4 C 17,8 C 22,8 C 100 % 1009,4 hPa 0,0 l/m 0 min 0 min 34 W/m 12,9 km/h (3 Bft) 92,59 %
14.07.2021 14:04 18,4 C 17,8 C 22,8 C 100 % 1009,4 hPa 0,0 l/m 0 min 0 min 34 W/m 16,1 km/h (3 Bft) 93,62 %
14.07.2021 14:06 18,4 C 17,8 C 22,8 C 100 % 1009,4 hPa 0,0 l/m 0 min 0 min 33 W/m 19,3 km/h (3 Bft) 93,62 %
14.07.2021 14:08 18,4 C 17,8 C 22,8 C 100 % 1009,4 hPa 0,0 l/m 0 min 0 min 37 W/m 19,3 km/h (3 Bft) 91,49 %
14.07.2021 14:10 18,4 C 17,8 C 22,8 C 100 % 1009,4 hPa 0,0 l/m 0 min 0 min 40 W/m 12,9 km/h (3 Bft) 95,65 %
14.07.2021 14:12 18,4 C 17,8 C 22,8 C 100 % 1009,4 hPa 0,0 l/m 0 min 0 min 41 W/m 16,1 km/h (3 Bft) 95,74 %
14.07.2021 14:14 18,4 C 17,8 C 22,8 C 100 % 1009,4 hPa 0,0 l/m 0 min 0 min 41 W/m 25,7 km/h (4 Bft) 95,74 %
14.07.2021 14:16 18,4 C 17,8 C 22,8 C 100 % 1009,4 hPa 0,0 l/m 0 min 0 min 42 W/m 19,3 km/h (3 Bft) 93,62 %
14.07.2021 14:18 18,5 C 17,8 C 22,8 C 100 % 1009,4 hPa 0,0 l/m 0 min 0 min 46 W/m 22,5 km/h (4 Bft) 95,83 %
14.07.2021 14:20 18,5 C 17,8 C 22,8 C 100 % 1009,4 hPa 0,0 l/m 0 min 0 min 43 W/m 16,1 km/h (3 Bft) 95,74 %
14.07.2021 14:22 18,5 C 17,8 C 22,8 C 100 % 1009,4 hPa 0,0 l/m 0 min 0 min 44 W/m 22,5 km/h (4 Bft) 95,65 %
14.07.2021 14:24 18,5 C 17,8 C 22,8 C 100 % 1009,4 hPa 0,0 l/m 0 min 0 min 53 W/m 16,1 km/h (3 Bft) 95,74 %
14.07.2021 14:26 18,5 C 17,8 C 22,8 C 100 % 1009,4 hPa 0,0 l/m 0 min 0 min 65 W/m 19,3 km/h (3 Bft) 95,74 %
14.07.2021 14:28 18,5 C 17,8 C 22,8 C 100 % 1009,3 hPa 0,0 l/m 0 min 0 min 70 W/m 19,3 km/h (3 Bft) 95,74 %
14.07.2021 14:30 18,5 C 17,8 C 22,8 C 100 % 1009,3 hPa 0,0 l/m 0 min 0 min 81 W/m 12,9 km/h (3 Bft) 95,74 %
14.07.2021 14:32 18,5 C 17,8 C 22,8 C 100 % 1009,2 hPa 0,0 l/m 0 min 0 min 84 W/m 19,3 km/h (3 Bft) 95,74 %
14.07.2021 14:34 18,5 C 17,8 C 22,8 C 100 % 1009,2 hPa 0,0 l/m 0 min 0 min 80 W/m 12,9 km/h (3 Bft) 97,83 %
14.07.2021 14:36 18,6 C 17,8 C 23,4 C 100 % 1009,2 hPa 0,0 l/m 0 min 0 min 76 W/m 12,9 km/h (3 Bft) 98,04 %
14.07.2021 14:38 18,6 C 17,8 C 22,8 C 100 % 1009,2 hPa 0,0 l/m 0 min 0 min 75 W/m 19,3 km/h (3 Bft) 97,14 %
14.07.2021 14:40 18,6 C 17,8 C 22,8 C 100 % 1009,2 hPa 0,0 l/m 0 min 0 min 75 W/m 22,5 km/h (4 Bft) 97,87 %
14.07.2021 14:42 18,6 C 17,8 C 23,4 C 100 % 1009,2 hPa 0,0 l/m 0 min 0 min 76 W/m 16,1 km/h (3 Bft) 97,87 %
14.07.2021 14:44 18,6 C 17,8 C 23,4 C 100 % 1009,1 hPa 0,0 l/m 0 min 0 min 72 W/m 25,7 km/h (4 Bft) 97,83 %
14.07.2021 14:46 18,7 C 17,8 C 23,4 C 100 % 1009,1 hPa 0,0 l/m 0 min 0 min 69 W/m 22,5 km/h (4 Bft) 97,87 %
14.07.2021 14:48 18,7 C 17,8 C 23,4 C 100 % 1009,1 hPa 0,0 l/m 0 min 0 min 75 W/m 29,0 km/h (5 Bft) 97,87 %
14.07.2021 14:50 18,8 C 17,8 C 23,4 C 100 % 1009,0 hPa 0,0 l/m 0 min 0 min 78 W/m 12,9 km/h (3 Bft) 97,87 %
14.07.2021 14:52 18,8 C 18,3 C 23,4 C 100 % 1009,0 hPa 0,0 l/m 0 min 0 min 85 W/m 19,3 km/h (3 Bft) 95,74 %
14.07.2021 14:54 18,8 C 18,3 C 23,4 C 100 % 1009,0 hPa 0,0 l/m 0 min 0 min 94 W/m 16,1 km/h (3 Bft) 97,87 %
14.07.2021 14:56 18,8 C 18,3 C 23,4 C 100 % 1008,9 hPa 0,0 l/m 0 min 0 min 111 W/m 19,3 km/h (3 Bft) 98,11 %
14.07.2021 14:58 18,9 C 18,3 C 23,4 C 100 % 1009,0 hPa 0,0 l/m 0 min 0 min 113 W/m 12,9 km/h (3 Bft) 97,67 %
14.07.2021 15:00 18,9 C 18,3 C 23,4 C 100 % 1009,0 hPa 0,0 l/m 0 min 0 min 128 W/m 32,2 km/h (5 Bft) 97,87 %
14.07.2021 15:02 18,9 C 18,3 C 23,4 C 100 % 1009,0 hPa 0,0 l/m 0 min 0 min 105 W/m 25,7 km/h (4 Bft) 98,11 %
14.07.2021 15:04 18,8 C 18,3 C 23,4 C 100 % 1008,9 hPa 0,0 l/m 0 min 0 min 88 W/m 25,7 km/h (4 Bft) 97,87 %
14.07.2021 15:06 18,8 C 18,3 C 23,4 C 100 % 1008,9 hPa 0,0 l/m 0 min 0 min 86 W/m 19,3 km/h (3 Bft) 95,74 %
14.07.2021 15:08 18,8 C 18,3 C 23,4 C 100 % 1008,8 hPa 0,0 l/m 0 min 0 min 103 W/m 22,5 km/h (4 Bft) 97,87 %
14.07.2021 15:10 18,8 C 18,3 C 23,4 C 100 % 1008,8 hPa 0,0 l/m 0 min 0 min 87 W/m 25,7 km/h (4 Bft) 97,83 %
14.07.2021 15:12 18,8 C 18,3 C 23,4 C 100 % 1008,8 hPa 0,0 l/m 0 min 0 min 84 W/m 22,5 km/h (4 Bft) 97,87 %
14.07.2021 15:14 18,8 C 18,3 C 23,4 C 100 % 1008,8 hPa 0,0 l/m 0 min 0 min 72 W/m 19,3 km/h (3 Bft) 97,83 %
14.07.2021 15:16 18,8 C 18,3 C 23,4 C 100 % 1008,8 hPa 0,0 l/m 0 min 0 min 67 W/m 19,3 km/h (3 Bft) 97,67 %
14.07.2021 15:18 18,8 C 18,3 C 23,4 C 100 % 1008,8 hPa 0,0 l/m 0 min 0 min 62 W/m 22,5 km/h (4 Bft) 97,83 %
14.07.2021 15:20 18,8 C 18,3 C 23,4 C 100 % 1008,8 hPa 0,0 l/m 0 min 0 min 71 W/m 25,7 km/h (4 Bft) 100,00 %
14.07.2021 15:22 18,9 C 18,3 C 23,4 C 100 % 1008,8 hPa 0,0 l/m 0 min 0 min 74 W/m 12,9 km/h (3 Bft) 97,06 %
14.07.2021 15:24 18,9 C 18,3 C 23,4 C 100 % 1008,8 hPa 0,0 l/m 0 min 0 min 65 W/m 19,3 km/h (3 Bft) 97,87 %
14.07.2021 15:26 18,9 C 18,3 C 23,4 C 100 % 1008,8 hPa 0,0 l/m 0 min 0 min 70 W/m 16,1 km/h (3 Bft) 97,87 %
14.07.2021 15:28 18,9 C 18,3 C 23,9 C 100 % 1008,8 hPa 0,0 l/m 0 min 0 min 74 W/m 16,1 km/h (3 Bft) 97,87 %
14.07.2021 15:30 18,9 C 18,3 C 23,9 C 100 % 1008,8 hPa 0,0 l/m 0 min 0 min 77 W/m 22,5 km/h (4 Bft) 97,83 %
14.07.2021 15:32 18,9 C 18,3 C 23,4 C 100 % 1008,8 hPa 0,0 l/m 0 min 0 min 78 W/m 32,2 km/h (5 Bft) 95,74 %
14.07.2021 15:34 18,9 C 18,3 C 23,4 C 100 % 1008,8 hPa 0,0 l/m 0 min 0 min 88 W/m 12,9 km/h (3 Bft) 97,87 %
14.07.2021 15:36 18,9 C 18,3 C 23,4 C 100 % 1008,8 hPa 0,0 l/m 0 min 0 min 81 W/m 22,5 km/h (4 Bft) 97,87 %
14.07.2021 15:38 18,9 C 18,3 C 23,4 C 100 % 1008,8 hPa 0,0 l/m 0 min 0 min 68 W/m 19,3 km/h (3 Bft) 95,74 %
14.07.2021 15:40 18,9 C 18,3 C 23,4 C 100 % 1008,8 hPa 0,0 l/m 0 min 0 min 56 W/m 16,1 km/h (3 Bft) 97,87 %
14.07.2021 15:42 18,9 C 18,3 C 23,9 C 100 % 1008,8 hPa 0,0 l/m 0 min 0 min 50 W/m 22,5 km/h (4 Bft) 93,48 %
14.07.2021 15:44 18,9 C 18,3 C 23,9 C 100 % 1008,9 hPa 0,0 l/m 0 min 0 min 57 W/m 19,3 km/h (3 Bft) 97,87 %
14.07.2021 15:46 18,9 C 18,3 C 23,4 C 100 % 1008,8 hPa 0,0 l/m 0 min 0 min 63 W/m 25,7 km/h (4 Bft) 97,87 %
14.07.2021 15:48 18,9 C 18,3 C 23,4 C 100 % 1008,7 hPa 0,0 l/m 0 min 0 min 66 W/m 32,2 km/h (5 Bft) 97,87 %
14.07.2021 15:50 18,9 C 18,3 C 23,4 C 100 % 1008,7 hPa 0,0 l/m 0 min 0 min 86 W/m 22,5 km/h (4 Bft) 97,87 %
14.07.2021 15:52 18,8 C 18,3 C 23,4 C 100 % 1008,8 hPa 0,0 l/m 0 min 0 min 76 W/m 22,5 km/h (4 Bft) 95,74 %
14.07.2021 15:54 18,8 C 18,3 C 23,4 C 100 % 1008,8 hPa 0,0 l/m 0 min 0 min 68 W/m 16,1 km/h (3 Bft) 97,83 %
14.07.2021 15:56 18,8 C 18,3 C 23,4 C 100 % 1008,8 hPa 0,0 l/m 0 min 0 min 56 W/m 29,0 km/h (5 Bft) 97,87 %
14.07.2021 15:58 18,8 C 18,3 C 23,9 C 100 % 1008,8 hPa 0,0 l/m 0 min 0 min 53 W/m 22,5 km/h (4 Bft) 95,74 %
14.07.2021 16:00 18,8 C 18,3 C 23,4 C 100 % 1008,8 hPa 0,0 l/m 0 min 0 min 56 W/m 25,7 km/h (4 Bft) 97,87 %
14.07.2021 16:02 18,8 C 18,3 C 23,4 C 100 % 1008,8 hPa 0,0 l/m 0 min 2 min 62 W/m 32,2 km/h (5 Bft) 97,87 %
14.07.2021 16:04 18,8 C 18,3 C 23,4 C 100 % 1008,7 hPa 0,0 l/m 0 min 0 min 64 W/m 25,7 km/h (4 Bft) 95,74 %
14.07.2021 16:06 18,8 C 18,3 C 23,4 C 100 % 1008,7 hPa 0,0 l/m 0 min 0 min 64 W/m 22,5 km/h (4 Bft) 97,83 %
14.07.2021 16:08 18,8 C 18,3 C 23,4 C 100 % 1008,7 hPa 0,0 l/m 0 min 0 min 61 W/m 22,5 km/h (4 Bft) 97,87 %
14.07.2021 16:10 18,8 C 18,3 C 23,4 C 100 % 1008,7 hPa 0,0 l/m 0 min 0 min 63 W/m 32,2 km/h (5 Bft) 97,87 %
14.07.2021 16:12 18,8 C 18,3 C 23,4 C 100 % 1008,7 hPa 0,0 l/m 0 min 0 min 62 W/m 9,7 km/h (2 Bft) 91,49 %
14.07.2021 16:14 18,8 C 18,3 C 23,9 C 100 % 1008,7 hPa 0,0 l/m 0 min 0 min 62 W/m 41,8 km/h (6 Bft) 95,74 %
14.07.2021 16:16 18,8 C 18,3 C 23,4 C 100 % 1008,7 hPa 0,0 l/m 0 min 0 min 57 W/m 29,0 km/h (5 Bft) 95,65 %
14.07.2021 16:18 18,8 C 18,3 C 23,4 C 100 % 1008,7 hPa 0,0 l/m 0 min 0 min 59 W/m 29,0 km/h (5 Bft) 95,74 %
14.07.2021 16:20 18,8 C 18,3 C 23,4 C 100 % 1008,8 hPa 0,0 l/m 0 min 0 min 62 W/m 19,3 km/h (3 Bft) 93,62 %
14.07.2021 16:22 18,8 C 18,3 C 23,4 C 100 % 1008,7 hPa 0,0 l/m 0 min 0 min 57 W/m 22,5 km/h (4 Bft) 95,74 %
14.07.2021 16:24 18,8 C 18,3 C 23,4 C 100 % 1008,7 hPa 0,0 l/m 0 min 0 min 54 W/m 29,0 km/h (5 Bft) 95,74 %
14.07.2021 16:26 18,8 C 18,3 C 23,4 C 100 % 1008,8 hPa 0,0 l/m 0 min 0 min 50 W/m 16,1 km/h (3 Bft) 93,62 %
14.07.2021 16:28 18,8 C 18,3 C 23,9 C 100 % 1008,7 hPa 0,0 l/m 0 min 2 min 49 W/m 16,1 km/h (3 Bft) 91,30 %
14.07.2021 16:30 18,8 C 18,3 C 23,9 C 100 % 1008,8 hPa 0,0 l/m 0 min 2 min 52 W/m 16,1 km/h (3 Bft) 93,62 %
14.07.2021 16:32 18,8 C 18,3 C 23,9 C 100 % 1008,7 hPa 0,0 l/m 0 min 2 min 55 W/m 22,5 km/h (4 Bft) 95,83 %
14.07.2021 16:34 18,8 C 18,3 C 23,9 C 100 % 1008,7 hPa 0,0 l/m 0 min 0 min 47 W/m 19,3 km/h (3 Bft) 95,74 %
14.07.2021 16:36 18,8 C 18,3 C 23,4 C 100 % 1008,8 hPa 0,0 l/m 0 min 2 min 50 W/m 22,5 km/h (4 Bft) 93,62 %
14.07.2021 16:38 18,8 C 18,3 C 23,4 C 100 % 1008,7 hPa 0,0 l/m 0 min 0 min 54 W/m 16,1 km/h (3 Bft) 95,74 %
14.07.2021 16:40 18,9 C 18,3 C 23,4 C 100 % 1008,7 hPa 0,0 l/m 0 min 0 min 51 W/m 25,7 km/h (4 Bft) 95,65 %
14.07.2021 16:42 18,8 C 18,3 C 23,4 C 100 % 1008,7 hPa 0,0 l/m 0 min 0 min 50 W/m 32,2 km/h (5 Bft) 93,62 %
14.07.2021 16:44 18,8 C 18,3 C 23,9 C 100 % 1008,8 hPa 0,0 l/m 0 min 0 min 46 W/m 19,3 km/h (3 Bft) 93,62 %
14.07.2021 16:46 18,8 C 18,3 C 23,9 C 100 % 1008,7 hPa 0,0 l/m 0 min 0 min 51 W/m 12,9 km/h (3 Bft) 93,62 %
14.07.2021 16:48 18,8 C 18,3 C 23,9 C 100 % 1008,7 hPa 0,0 l/m 0 min 0 min 63 W/m 12,9 km/h (3 Bft) 93,62 %
14.07.2021 16:50 18,9 C 18,3 C 23,9 C 100 % 1008,7 hPa 0,0 l/m 0 min 0 min 76 W/m 19,3 km/h (3 Bft) 93,62 %
14.07.2021 16:52 18,9 C 18,3 C 23,9 C 100 % 1008,6 hPa 0,0 l/m 0 min 0 min 74 W/m 12,9 km/h (3 Bft) 93,48 %
14.07.2021 16:54 18,9 C 18,3 C 23,9 C 100 % 1008,6 hPa 0,0 l/m 0 min 2 min 69 W/m 22,5 km/h (4 Bft) 93,62 %
14.07.2021 16:56 18,9 C 18,3 C 23,9 C 100 % 1008,7 hPa 0,0 l/m 0 min 0 min 70 W/m 9,7 km/h (2 Bft) 93,62 %
14.07.2021 16:58 18,9 C 18,3 C 23,9 C 100 % 1008,7 hPa 0,0 l/m 0 min 0 min 61 W/m 19,3 km/h (3 Bft) 95,74 %
14.07.2021 17:00 18,9 C 18,3 C 23,9 C 100 % 1008,7 hPa 0,0 l/m 0 min 0 min 54 W/m 19,3 km/h (3 Bft) 95,74 %
14.07.2021 17:02 18,9 C 18,3 C 23,9 C 100 % 1008,8 hPa 0,0 l/m 0 min 0 min 62 W/m 12,9 km/h (3 Bft) 93,62 %
14.07.2021 17:04 18,9 C 18,3 C 23,9 C 100 % 1008,8 hPa 0,0 l/m 0 min 2 min 74 W/m 16,1 km/h (3 Bft) 91,49 %
14.07.2021 17:06 18,9 C 18,3 C 23,9 C 100 % 1008,8 hPa 0,0 l/m 0 min 2 min 77 W/m 19,3 km/h (3 Bft) 96,00 %
14.07.2021 17:08 18,9 C 18,3 C 23,9 C 100 % 1008,8 hPa 0,0 l/m 0 min 0 min 82 W/m 25,7 km/h (4 Bft) 95,74 %
14.07.2021 17:10 18,9 C 18,3 C 23,9 C 100 % 1008,8 hPa 0,0 l/m 0 min 0 min 79 W/m 9,7 km/h (2 Bft) 95,74 %
14.07.2021 17:12 18,9 C 18,3 C 23,9 C 100 % 1008,8 hPa 0,0 l/m 0 min 2 min 84 W/m 22,5 km/h (4 Bft) 93,62 %
14.07.2021 17:14 18,9 C 18,9 C 23,9 C 100 % 1008,8 hPa 0,0 l/m 0 min 0 min 93 W/m 9,7 km/h (2 Bft) 95,74 %
14.07.2021 17:16 18,9 C 18,9 C 23,9 C 100 % 1008,7 hPa 0,0 l/m 0 min 0 min 91 W/m 12,9 km/h (3 Bft) 95,65 %
14.07.2021 17:18 19,0 C 18,9 C 23,9 C 100 % 1008,7 hPa 0,0 l/m 0 min 0 min 79 W/m 16,1 km/h (3 Bft) 97,87 %
14.07.2021 17:20 19,0 C 18,9 C 23,9 C 100 % 1008,6 hPa 0,0 l/m 0 min 0 min 76 W/m 16,1 km/h (3 Bft) 95,74 %
14.07.2021 17:22 19,0 C 18,9 C 23,9 C 100 % 1008,6 hPa 0,0 l/m 0 min 2 min 77 W/m 9,7 km/h (2 Bft) 95,74 %
14.07.2021 17:24 19,0 C 18,9 C 23,9 C 100 % 1008,6 hPa 0,0 l/m 0 min 2 min 81 W/m 16,1 km/h (3 Bft) 95,74 %
14.07.2021 17:26 19,0 C 18,9 C 23,9 C 100 % 1008,6 hPa 0,0 l/m 0 min 2 min 88 W/m 22,5 km/h (4 Bft) 97,87 %
14.07.2021 17:28 19,0 C 18,9 C 23,9 C 100 % 1008,6 hPa 0,0 l/m 0 min 2 min 97 W/m 19,3 km/h (3 Bft) 95,65 %
14.07.2021 17:30 19,0 C 18,3 C 23,9 C 100 % 1008,7 hPa 0,0 l/m 0 min 2 min 98 W/m 25,7 km/h (4 Bft) 95,74 %
14.07.2021 17:32 19,0 C 18,3 C 23,9 C 100 % 1008,7 hPa 0,0 l/m 0 min 2 min 84 W/m 22,5 km/h (4 Bft) 95,74 %
14.07.2021 17:34 19,0 C 18,3 C 23,9 C 100 % 1008,6 hPa 0,0 l/m 0 min 2 min 71 W/m 19,3 km/h (3 Bft) 100,00 %
14.07.2021 17:36 19,0 C 18,3 C 23,9 C 100 % 1008,6 hPa 0,0 l/m 0 min 2 min 73 W/m 16,1 km/h (3 Bft) 97,87 %
14.07.2021 17:38 19,0 C 18,3 C 23,9 C 100 % 1008,6 hPa 0,0 l/m 0 min 2 min 60 W/m 16,1 km/h (3 Bft) 97,87 %
14.07.2021 17:40 19,0 C 18,3 C 23,9 C 100 % 1008,6 hPa 0,0 l/m 0 min 2 min 49 W/m 16,1 km/h (3 Bft) 95,65 %
14.07.2021 17:42 19,0 C 18,3 C 23,9 C 100 % 1008,6 hPa 0,0 l/m 0 min 2 min 36 W/m 16,1 km/h (3 Bft) 100,00 %
14.07.2021 17:44 19,0 C 18,3 C 23,9 C 100 % 1008,6 hPa 0,0 l/m 0 min 2 min 32 W/m 22,5 km/h (4 Bft) 97,87 %
14.07.2021 17:46 19,0 C 18,3 C 23,9 C 100 % 1008,6 hPa 0,0 l/m 0 min 2 min 27 W/m 16,1 km/h (3 Bft) 95,74 %
14.07.2021 17:48 19,0 C 18,3 C 23,9 C 100 % 1008,6 hPa 0,2 l/m 0 min 2 min 22 W/m 16,1 km/h (3 Bft) 97,87 %
14.07.2021 17:50 19,0 C 18,3 C 23,9 C 100 % 1008,6 hPa 0,0 l/m 0 min 2 min 22 W/m 12,9 km/h (3 Bft) 97,87 %
14.07.2021 17:52 18,9 C 18,3 C 23,9 C 100 % 1008,6 hPa 0,0 l/m 0 min 2 min 19 W/m 19,3 km/h (3 Bft) 97,83 %
14.07.2021 17:54 18,9 C 18,3 C 23,9 C 100 % 1008,5 hPa 0,0 l/m 0 min 2 min 16 W/m 19,3 km/h (3 Bft) 97,87 %
14.07.2021 17:56 18,9 C 18,3 C 23,9 C 100 % 1008,5 hPa 0,0 l/m 0 min 2 min 15 W/m 12,9 km/h (3 Bft) 97,87 %
14.07.2021 17:58 18,9 C 18,3 C 23,9 C 100 % 1008,5 hPa 0,0 l/m 0 min 2 min 15 W/m 9,7 km/h (2 Bft) 97,87 %
14.07.2021 18:00 18,9 C 18,3 C 23,9 C 100 % 1008,4 hPa 0,2 l/m 0 min 2 min 17 W/m 12,9 km/h (3 Bft) 95,74 %
14.07.2021 18:02 18,9 C 18,3 C 23,9 C 100 % 1008,4 hPa 0,0 l/m 0 min 2 min 18 W/m 12,9 km/h (3 Bft) 97,87 %
14.07.2021 18:04 18,9 C 18,3 C 23,9 C 100 % 1008,4 hPa 0,2 l/m 0 min 2 min 18 W/m 16,1 km/h (3 Bft) 76,09 %
14.07.2021 18:08 18,9 C 17,8 C 23,9 C 100 % 1008,3 hPa 0,2 l/m 0 min 4 min 18 W/m 16,1 km/h (3 Bft) 87,64 %
14.07.2021 18:10 18,9 C 17,8 C 23,9 C 100 % 1008,3 hPa 0,0 l/m 0 min 2 min 19 W/m 6,4 km/h (2 Bft) 97,87 %
14.07.2021 18:12 18,9 C 17,8 C 23,9 C 100 % 1008,3 hPa 0,2 l/m 0 min 2 min 17 W/m 16,1 km/h (3 Bft) 97,87 %
14.07.2021 18:14 18,9 C 17,8 C 23,9 C 100 % 1008,3 hPa 0,0 l/m 0 min 2 min 15 W/m 16,1 km/h (3 Bft) 97,83 %
14.07.2021 18:16 18,9 C 17,8 C 23,9 C 100 % 1008,3 hPa 0,0 l/m 0 min 2 min 12 W/m 12,9 km/h (3 Bft) 97,87 %
14.07.2021 18:18 18,9 C 17,8 C 23,9 C 100 % 1008,2 hPa 0,0 l/m 0 min 2 min 13 W/m 19,3 km/h (3 Bft) 95,74 %
14.07.2021 18:20 18,9 C 17,8 C 23,9 C 100 % 1008,2 hPa 0,0 l/m 0 min 2 min 15 W/m 19,3 km/h (3 Bft) 95,74 %
14.07.2021 18:22 18,8 C 17,8 C 23,9 C 100 % 1008,2 hPa 0,2 l/m 0 min 2 min 13 W/m 9,7 km/h (2 Bft) 95,74 %
14.07.2021 18:24 18,9 C 17,8 C 23,9 C 100 % 1008,2 hPa 0,0 l/m 0 min 2 min 13 W/m 9,7 km/h (2 Bft) 97,87 %
14.07.2021 18:26 18,9 C 17,8 C 23,9 C 100 % 1008,1 hPa 0,2 l/m 0 min 2 min 12 W/m 9,7 km/h (2 Bft) 95,65 %
14.07.2021 18:28 18,9 C 17,8 C 23,9 C 100 % 1008,0 hPa 0,0 l/m 0 min 2 min 13 W/m 9,7 km/h (2 Bft) 97,87 %
14.07.2021 18:30 18,9 C 17,8 C 23,9 C 100 % 1008,0 hPa 0,0 l/m 0 min 2 min 15 W/m 9,7 km/h (2 Bft) 97,87 %
14.07.2021 18:32 18,9 C 17,8 C 23,9 C 100 % 1008,0 hPa 0,0 l/m 0 min 2 min 19 W/m 9,7 km/h (2 Bft) 93,62 %
14.07.2021 18:34 18,9 C 17,8 C 23,9 C 100 % 1007,9 hPa 0,2 l/m 0 min 2 min 22 W/m 12,9 km/h (3 Bft) 97,87 %
14.07.2021 18:36 18,9 C 17,8 C 23,9 C 100 % 1007,9 hPa 0,0 l/m 0 min 2 min 21 W/m 12,9 km/h (3 Bft) 97,87 %
14.07.2021 18:38 18,9 C 17,8 C 23,9 C 100 % 1007,8 hPa 0,2 l/m 0 min 2 min 20 W/m 16,1 km/h (3 Bft) 97,83 %
14.07.2021 18:40 18,9 C 17,8 C 23,9 C 100 % 1007,9 hPa 0,2 l/m 0 min 2 min 18 W/m 16,1 km/h (3 Bft) 97,87 %
14.07.2021 18:42 18,9 C 17,8 C 23,9 C 100 % 1007,8 hPa 0,0 l/m 0 min 2 min 19 W/m 12,9 km/h (3 Bft) 97,87 %
14.07.2021 18:44 18,8 C 17,8 C 23,9 C 100 % 1007,8 hPa 0,2 l/m 0 min 2 min 17 W/m 12,9 km/h (3 Bft) 97,87 %
14.07.2021 18:46 18,9 C 17,8 C 23,9 C 100 % 1007,8 hPa 0,2 l/m 0 min 2 min 13 W/m 9,7 km/h (2 Bft) 97,87 %
14.07.2021 18:48 18,9 C 17,8 C 23,9 C 100 % 1007,7 hPa 0,2 l/m 0 min 2 min 12 W/m 16,1 km/h (3 Bft) 97,87 %
14.07.2021 18:50 18,8 C 17,8 C 23,9 C 100 % 1007,6 hPa 0,2 l/m 0 min 2 min 11 W/m 16,1 km/h (3 Bft) 95,65 %
14.07.2021 18:52 18,8 C 17,8 C 23,9 C 100 % 1007,6 hPa 0,2 l/m 0 min 2 min 11 W/m 16,1 km/h (3 Bft) 93,62 %
14.07.2021 18:54 18,8 C 17,8 C 23,9 C 100 % 1007,5 hPa 0,4 l/m 0 min 2 min 7 W/m 16,1 km/h (3 Bft) 97,87 %
14.07.2021 18:56 18,8 C 17,8 C 23,4 C 100 % 1007,4 hPa 0,2 l/m 0 min 2 min 7 W/m 19,3 km/h (3 Bft) 97,87 %
14.07.2021 18:58 18,8 C 17,8 C 23,9 C 100 % 1007,3 hPa 0,2 l/m 0 min 2 min 11 W/m 12,9 km/h (3 Bft) 93,62 %
14.07.2021 19:00 18,8 C 17,8 C 23,9 C 100 % 1007,3 hPa 0,2 l/m 0 min 2 min 11 W/m 12,9 km/h (3 Bft) 96,00 %
14.07.2021 19:02 18,8 C 17,8 C 23,9 C 100 % 1007,3 hPa 0,2 l/m 0 min 2 min 10 W/m 19,3 km/h (3 Bft) 95,74 %
14.07.2021 19:04 18,8 C 17,8 C 23,4 C 100 % 1007,2 hPa 0,2 l/m 0 min 2 min 9 W/m 22,5 km/h (4 Bft) 93,62 %
14.07.2021 19:06 18,8 C 17,8 C 23,4 C 100 % 1007,3 hPa 0,2 l/m 0 min 2 min 7 W/m 12,9 km/h (3 Bft) 95,74 %
14.07.2021 19:08 18,8 C 17,8 C 23,4 C 100 % 1007,2 hPa 0,4 l/m 0 min 2 min 11 W/m 16,1 km/h (3 Bft) 95,74 %
14.07.2021 19:10 18,8 C 17,8 C 23,4 C 100 % 1007,2 hPa 0,2 l/m 0 min 2 min 10 W/m 19,3 km/h (3 Bft) 97,87 %
14.07.2021 19:12 18,8 C 17,8 C 23,9 C 100 % 1007,2 hPa 0,2 l/m 0 min 2 min 11 W/m 22,5 km/h (4 Bft) 95,74 %
14.07.2021 19:14 18,8 C 17,8 C 23,9 C 100 % 1007,2 hPa 0,0 l/m 0 min 2 min 9 W/m 16,1 km/h (3 Bft) 91,30 %
14.07.2021 19:16 18,8 C 17,8 C 23,9 C 100 % 1007,2 hPa 0,4 l/m 0 min 2 min 11 W/m 19,3 km/h (3 Bft) 95,74 %
14.07.2021 19:18 18,8 C 17,8 C 23,4 C 100 % 1007,2 hPa 0,4 l/m 0 min 2 min 12 W/m 19,3 km/h (3 Bft) 95,74 %
14.07.2021 19:20 18,8 C 17,8 C 23,4 C 100 % 1007,1 hPa 0,4 l/m 0 min 2 min 13 W/m 25,7 km/h (4 Bft) 93,62 %
14.07.2021 19:22 18,8 C 17,8 C 23,4 C 100 % 1007,0 hPa 0,2 l/m 0 min 2 min 17 W/m 25,7 km/h (4 Bft) 93,62 %
14.07.2021 19:24 18,7 C 17,8 C 23,4 C 100 % 1007,0 hPa 0,4 l/m 0 min 2 min 18 W/m 19,3 km/h (3 Bft) 95,74 %
14.07.2021 19:26 18,7 C 17,8 C 23,4 C 100 % 1006,9 hPa 0,2 l/m 0 min 2 min 16 W/m 29,0 km/h (5 Bft) 95,65 %
14.07.2021 19:28 18,7 C 17,8 C 23,9 C 100 % 1006,9 hPa 0,6 l/m 0 min 2 min 15 W/m 19,3 km/h (3 Bft) 95,74 %
14.07.2021 19:30 18,7 C 17,8 C 23,9 C 100 % 1006,9 hPa 0,4 l/m 0 min 2 min 15 W/m 29,0 km/h (5 Bft) 93,62 %
14.07.2021 19:32 18,7 C 17,8 C 23,9 C 100 % 1006,8 hPa 0,2 l/m 0 min 2 min 11 W/m 25,7 km/h (4 Bft) 93,62 %
14.07.2021 19:34 18,7 C 17,8 C 23,9 C 100 % 1006,8 hPa 0,2 l/m 0 min 2 min 9 W/m 19,3 km/h (3 Bft) 95,74 %
14.07.2021 19:36 18,6 C 17,8 C 23,4 C 100 % 1006,5 hPa 0,0 l/m 0 min 0 min 10 W/m 19,3 km/h (3 Bft) 95,74 %
14.07.2021 19:38 18,6 C 17,8 C 23,4 C 100 % 1006,7 hPa 0,0 l/m 0 min 0 min 11 W/m 22,5 km/h (4 Bft) 93,62 %
14.07.2021 19:40 18,6 C 17,8 C 23,4 C 100 % 1006,8 hPa 0,0 l/m 0 min 2 min 12 W/m 29,0 km/h (5 Bft) 95,65 %
14.07.2021 19:42 18,6 C 17,8 C 23,9 C 100 % 1006,8 hPa 0,2 l/m 0 min 2 min 12 W/m 19,3 km/h (3 Bft) 93,62 %
14.07.2021 19:44 18,6 C 17,8 C 23,9 C 100 % 1006,7 hPa 0,0 l/m 0 min 2 min 12 W/m 41,8 km/h (6 Bft) 95,74 %
14.07.2021 19:46 18,6 C 17,8 C 23,9 C 100 % 1006,9 hPa 0,0 l/m 0 min 2 min 11 W/m 29,0 km/h (5 Bft) 95,74 %
14.07.2021 19:48 18,6 C 17,8 C 23,4 C 100 % 1006,9 hPa 0,0 l/m 0 min 0 min 11 W/m 35,4 km/h (5 Bft) 91,49 %
14.07.2021 19:50 18,7 C 17,8 C 23,4 C 100 % 1007,0 hPa 0,0 l/m 0 min 0 min 13 W/m 25,7 km/h (4 Bft) 95,65 %
14.07.2021 19:52 18,7 C 17,8 C 23,4 C 100 % 1007,0 hPa 0,0 l/m 0 min 2 min 19 W/m 22,5 km/h (4 Bft) 93,62 %
14.07.2021 19:54 18,7 C 17,8 C 23,4 C 100 % 1007,0 hPa 0,2 l/m 0 min 0 min 19 W/m 32,2 km/h (5 Bft) 95,74 %
14.07.2021 19:56 18,7 C 17,8 C 23,4 C 100 % 1007,0 hPa 0,0 l/m 0 min 2 min 22 W/m 29,0 km/h (5 Bft) 95,74 %
14.07.2021 19:58 18,7 C 17,8 C 23,9 C 100 % 1007,2 hPa 0,0 l/m 0 min 2 min 18 W/m 25,7 km/h (4 Bft) 95,74 %
14.07.2021 20:00 18,7 C 17,8 C 23,9 C 100 % 1007,4 hPa 0,2 l/m 0 min 2 min 10 W/m 16,1 km/h (3 Bft) 95,74 %
14.07.2021 20:02 18,7 C 17,8 C 23,9 C 100 % 1007,5 hPa 0,2 l/m 0 min 2 min 6 W/m 16,1 km/h (3 Bft) 95,65 %
14.07.2021 20:04 18,8 C 17,8 C 23,9 C 100 % 1007,6 hPa 1,0 l/m 0 min 2 min 0 W/m 12,9 km/h (3 Bft) 97,87 %
14.07.2021 20:06 18,8 C 17,8 C 23,9 C 100 % 1007,5 hPa 1,4 l/m 0 min 2 min 4 W/m 19,3 km/h (3 Bft) 95,74 %
14.07.2021 20:08 18,8 C 17,8 C 23,9 C 100 % 1007,5 hPa 1,2 l/m 0 min 2 min 5 W/m 29,0 km/h (5 Bft) 95,74 %
14.07.2021 20:10 18,8 C 17,8 C 23,9 C 100 % 1007,5 hPa 1,0 l/m 0 min 2 min 4 W/m 19,3 km/h (3 Bft) 93,62 %
14.07.2021 20:12 18,9 C 17,8 C 23,9 C 100 % 1007,4 hPa 0,8 l/m 0 min 2 min 0 W/m 25,7 km/h (4 Bft) 95,74 %
14.07.2021 20:14 18,9 C 17,8 C 23,9 C 100 % 1007,4 hPa 0,0 l/m 0 min 2 min 0 W/m 25,7 km/h (4 Bft) 95,65 %
14.07.2021 20:16 18,9 C 17,8 C 23,9 C 100 % 1007,4 hPa 0,0 l/m 0 min 2 min 0 W/m 22,5 km/h (4 Bft) 95,74 %
14.07.2021 20:18 18,9 C 17,8 C 23,9 C 100 % 1007,3 hPa 0,0 l/m 0 min 0 min 0 W/m 19,3 km/h (3 Bft) 95,74 %
14.07.2021 20:20 18,9 C 17,8 C 23,9 C 100 % 1007,4 hPa 0,0 l/m 0 min 0 min 0 W/m 22,5 km/h (4 Bft) 93,62 %
14.07.2021 20:22 18,9 C 17,8 C 23,9 C 100 % 1007,3 hPa 0,0 l/m 0 min 0 min 0 W/m 22,5 km/h (4 Bft) 95,74 %
14.07.2021 20:24 18,9 C 17,8 C 23,9 C 100 % 1007,3 hPa 0,0 l/m 0 min 0 min 0 W/m 16,1 km/h (3 Bft) 95,74 %
14.07.2021 20:26 18,9 C 17,8 C 23,9 C 100 % 1007,3 hPa 0,0 l/m 0 min 0 min 1 W/m 22,5 km/h (4 Bft) 95,65 %
14.07.2021 20:28 19,0 C 17,8 C 23,9 C 100 % 1007,3 hPa 0,2 l/m 0 min 2 min 7 W/m 22,5 km/h (4 Bft) 93,62 %
14.07.2021 20:30 19,0 C 17,8 C 23,9 C 100 % 1007,2 hPa 0,2 l/m 0 min 2 min 13 W/m 25,7 km/h (4 Bft) 95,74 %
14.07.2021 20:32 19,0 C 17,8 C 23,9 C 100 % 1007,2 hPa 0,2 l/m 0 min 2 min 14 W/m 32,2 km/h (5 Bft) 95,74 %
14.07.2021 20:34 19,0 C 17,8 C 23,9 C 100 % 1007,3 hPa 0,2 l/m 0 min 2 min 11 W/m 25,7 km/h (4 Bft) 97,87 %
14.07.2021 20:36 19,0 C 17,8 C 23,9 C 100 % 1007,2 hPa 0,2 l/m 0 min 2 min 10 W/m 19,3 km/h (3 Bft) 97,87 %
14.07.2021 20:38 19,0 C 17,8 C 23,9 C 100 % 1007,2 hPa 0,2 l/m 0 min 2 min 10 W/m 32,2 km/h (5 Bft) 97,83 %
14.07.2021 20:40 19,0 C 17,8 C 23,9 C 100 % 1007,3 hPa 0,4 l/m 0 min 2 min 6 W/m 22,5 km/h (4 Bft) 97,87 %
14.07.2021 20:42 19,0 C 17,8 C 23,9 C 100 % 1007,3 hPa 0,4 l/m 0 min 2 min 3 W/m 16,1 km/h (3 Bft) 95,74 %
14.07.2021 20:44 19,0 C 17,8 C 23,9 C 100 % 1007,3 hPa 0,2 l/m 0 min 2 min 0 W/m 9,7 km/h (2 Bft) 97,87 %
14.07.2021 20:46 19,0 C 17,8 C 23,9 C 100 % 1007,5 hPa 0,2 l/m 0 min 2 min 0 W/m 12,9 km/h (3 Bft) 97,87 %
14.07.2021 20:48 19,0 C 17,8 C 23,9 C 100 % 1007,5 hPa 0,2 l/m 0 min 2 min 0 W/m 9,7 km/h (2 Bft) 95,74 %
14.07.2021 20:50 19,0 C 17,8 C 23,9 C 100 % 1007,3 hPa 0,4 l/m 0 min 2 min 0 W/m 6,4 km/h (2 Bft) 97,83 %
14.07.2021 20:52 19,0 C 17,8 C 23,9 C 100 % 1007,4 hPa 0,2 l/m 0 min 2 min 0 W/m 6,4 km/h (2 Bft) 97,87 %
14.07.2021 20:54 18,9 C 17,8 C 23,9 C 100 % 1007,3 hPa 0,6 l/m 0 min 2 min 0 W/m 6,4 km/h (2 Bft) 97,87 %
14.07.2021 20:56 18,9 C 17,8 C 23,9 C 100 % 1007,3 hPa 0,2 l/m 0 min 2 min 0 W/m 3,2 km/h (1 Bft) 97,87 %
14.07.2021 20:58 18,9 C 17,8 C 23,9 C 100 % 1007,4 hPa 0,4 l/m 0 min 2 min 0 W/m 3,2 km/h (1 Bft) 97,87 %
14.07.2021 21:00 18,9 C 17,8 C 23,9 C 100 % 1007,3 hPa 0,2 l/m 0 min 2 min 0 W/m 6,4 km/h (2 Bft) 97,87 %
14.07.2021 21:02 18,9 C 17,8 C 23,9 C 100 % 1007,5 hPa 0,4 l/m 0 min 2 min 0 W/m 6,4 km/h (2 Bft) 93,48 %
14.07.2021 21:04 18,9 C 17,8 C 23,9 C 100 % 1007,6 hPa 0,0 l/m 0 min 2 min 0 W/m 6,4 km/h (2 Bft) 97,87 %
14.07.2021 21:06 18,8 C 17,8 C 23,9 C 100 % 1007,6 hPa 0,2 l/m 0 min 2 min 0 W/m 3,2 km/h (1 Bft) 97,87 %
14.07.2021 21:08 18,8 C 17,8 C 23,9 C 100 % 1007,5 hPa 0,2 l/m 0 min 2 min 0 W/m 3,2 km/h (1 Bft) 97,87 %
14.07.2021 21:10 18,8 C 17,8 C 23,9 C 100 % 1007,5 hPa 0,0 l/m 0 min 2 min 0 W/m 3,2 km/h (1 Bft) 97,87 %
14.07.2021 21:12 18,7 C 17,8 C 23,9 C 100 % 1007,5 hPa 0,2 l/m 0 min 2 min 0 W/m 6,4 km/h (2 Bft) 95,74 %
14.07.2021 21:14 18,6 C 17,2 C 23,9 C 100 % 1007,5 hPa 0,2 l/m 0 min 2 min 0 W/m 3,2 km/h (1 Bft) 97,83 %
14.07.2021 21:16 18,6 C 17,2 C 23,9 C 100 % 1007,5 hPa 0,0 l/m 0 min 2 min 0 W/m 3,2 km/h (1 Bft) 97,87 %
14.07.2021 21:18 18,6 C 17,8 C 23,4 C 100 % 1007,6 hPa 0,2 l/m 0 min 2 min 0 W/m 3,2 km/h (1 Bft) 95,74 %
14.07.2021 21:20 18,6 C 17,8 C 23,9 C 100 % 1007,6 hPa 0,0 l/m 0 min 0 min 0 W/m 3,2 km/h (1 Bft) 97,87 %
14.07.2021 21:22 18,6 C 17,2 C 23,4 C 100 % 1007,6 hPa 0,0 l/m 0 min 0 min 0 W/m 0,0 km/h (0 Bft) 97,87 %
14.07.2021 21:24 18,5 C 17,2 C 23,4 C 100 % 1007,7 hPa 0,2 l/m 0 min 2 min 0 W/m 3,2 km/h (1 Bft) 97,87 %
14.07.2021 21:26 18,5 C 17,2 C 23,4 C 100 % 1007,8 hPa 0,0 l/m 0 min 2 min 0 W/m 6,4 km/h (2 Bft) 97,83 %
14.07.2021 21:28 18,5 C 17,2 C 23,4 C 100 % 1007,8 hPa 0,2 l/m 0 min 2 min 0 W/m 6,4 km/h (2 Bft) 97,87 %
14.07.2021 21:30 18,4 C 17,2 C 23,4 C 100 % 1007,9 hPa 0,0 l/m 0 min 0 min 0 W/m 9,7 km/h (2 Bft) 97,87 %
14.07.2021 21:32 18,3 C 17,2 C 23,4 C 100 % 1007,9 hPa 0,0 l/m 0 min 2 min 0 W/m 6,4 km/h (2 Bft) 97,50 %
14.07.2021 21:34 18,3 C 17,2 C 23,4 C 100 % 1008,0 hPa 0,4 l/m 0 min 2 min 0 W/m 3,2 km/h (1 Bft) 97,87 %
14.07.2021 21:36 18,1 C 17,2 C 23,4 C 100 % 1008,0 hPa 0,2 l/m 0 min 2 min 0 W/m 6,4 km/h (2 Bft) 97,87 %
14.07.2021 21:38 18,1 C 17,2 C 23,4 C 100 % 1008,0 hPa 0,2 l/m 0 min 2 min 0 W/m 6,4 km/h (2 Bft) 97,87 %
14.07.2021 21:40 18,0 C 16,7 C 23,4 C 100 % 1008,1 hPa 0,0 l/m 0 min 2 min 0 W/m 6,4 km/h (2 Bft) 97,83 %
14.07.2021 21:42 18,0 C 16,7 C 23,4 C 100 % 1008,2 hPa 0,0 l/m 0 min 0 min 0 W/m 9,7 km/h (2 Bft) 97,87 %
14.07.2021 21:44 17,9 C 16,7 C 23,4 C 100 % 1008,2 hPa 0,0 l/m 0 min 2 min 0 W/m 6,4 km/h (2 Bft) 95,74 %
14.07.2021 21:46 17,9 C 16,7 C 22,8 C 100 % 1008,1 hPa 0,2 l/m 0 min 2 min 0 W/m 6,4 km/h (2 Bft) 95,74 %
14.07.2021 21:48 17,8 C 16,7 C 22,8 C 100 % 1008,1 hPa 0,0 l/m 0 min 0 min 0 W/m 3,2 km/h (1 Bft) 95,74 %
14.07.2021 21:50 17,7 C 16,7 C 22,8 C 100 % 1008,2 hPa 0,0 l/m 0 min 0 min 0 W/m 6,4 km/h (2 Bft) 95,74 %
14.07.2021 21:52 17,6 C 16,7 C 22,8 C 100 % 1008,2 hPa 0,2 l/m 0 min 0 min 0 W/m 6,4 km/h (2 Bft) 95,65 %
14.07.2021 21:54 17,6 C 16,7 C 22,8 C 100 % 1008,2 hPa 0,0 l/m 0 min 0 min 0 W/m 6,4 km/h (2 Bft) 95,74 %
14.07.2021 21:56 17,6 C 16,7 C 22,8 C 100 % 1008,3 hPa 0,0 l/m 0 min 0 min 0 W/m 6,4 km/h (2 Bft) 95,74 %
14.07.2021 21:58 17,5 C 16,7 C 22,8 C 100 % 1008,3 hPa 0,0 l/m 0 min 0 min 0 W/m 9,7 km/h (2 Bft) 93,62 %
14.07.2021 22:00 17,5 C 16,7 C 22,8 C 100 % 1008,4 hPa 0,0 l/m 0 min 0 min 0 W/m 6,4 km/h (2 Bft) 93,62 %
14.07.2021 22:02 17,4 C 16,7 C 22,8 C 100 % 1008,5 hPa 0,0 l/m 0 min 0 min 0 W/m 6,4 km/h (2 Bft) 93,62 %
14.07.2021 22:04 17,4 C 16,7 C 22,8 C 100 % 1008,5 hPa 0,0 l/m 0 min 0 min 0 W/m 9,7 km/h (2 Bft) 95,65 %
14.07.2021 22:06 17,4 C 16,7 C 22,8 C 100 % 1008,5 hPa 0,0 l/m 0 min 0 min 0 W/m 6,4 km/h (2 Bft) 95,74 %
14.07.2021 22:08 17,4 C 16,7 C 22,8 C 100 % 1008,5 hPa 0,0 l/m 0 min 0 min 0 W/m 6,4 km/h (2 Bft) 95,74 %
14.07.2021 22:10 17,4 C 16,7 C 22,8 C 100 % 1008,5 hPa 0,0 l/m 0 min 0 min 0 W/m 12,9 km/h (3 Bft) 95,74 %
14.07.2021 22:12 17,3 C 16,7 C 22,8 C 100 % 1008,5 hPa 0,0 l/m 0 min 0 min 0 W/m 6,4 km/h (2 Bft) 95,74 %
14.07.2021 22:14 17,3 C 16,1 C 22,8 C 100 % 1008,5 hPa 0,0 l/m 0 min 0 min 0 W/m 3,2 km/h (1 Bft) 93,48 %
14.07.2021 22:16 17,3 C 16,7 C 22,8 C 100 % 1008,5 hPa 0,0 l/m 0 min 0 min 0 W/m 6,4 km/h (2 Bft) 93,62 %
14.07.2021 22:18 17,3 C 16,7 C 22,8 C 100 % 1008,5 hPa 0,0 l/m 0 min 0 min 0 W/m 6,4 km/h (2 Bft) 93,62 %
14.07.2021 22:20 17,3 C 16,1 C 22,8 C 100 % 1008,5 hPa 0,0 l/m 0 min 0 min 0 W/m 6,4 km/h (2 Bft) 95,74 %
14.07.2021 22:22 17,3 C 16,7 C 22,8 C 100 % 1008,5 hPa 0,0 l/m 0 min 0 min 0 W/m 6,4 km/h (2 Bft) 95,74 %
14.07.2021 22:24 17,3 C 16,7 C 22,8 C 100 % 1008,5 hPa 0,0 l/m 0 min 0 min 0 W/m 6,4 km/h (2 Bft) 95,74 %
14.07.2021 22:26 17,3 C 16,7 C 22,8 C 100 % 1008,6 hPa 0,0 l/m 0 min 0 min 0 W/m 6,4 km/h (2 Bft) 95,65 %
14.07.2021 22:28 17,3 C 16,7 C 22,8 C 100 % 1008,7 hPa 0,0 l/m 0 min 0 min 0 W/m 6,4 km/h (2 Bft) 93,62 %
14.07.2021 22:30 17,2 C 16,1 C 22,8 C 100 % 1008,7 hPa 0,0 l/m 0 min 0 min 0 W/m 6,4 km/h (2 Bft) 95,74 %
14.07.2021 22:32 17,2 C 16,1 C 22,8 C 100 % 1008,7 hPa 0,0 l/m 0 min 0 min 0 W/m 3,2 km/h (1 Bft) 97,87 %
14.07.2021 22:34 17,2 C 16,1 C 22,8 C 100 % 1008,7 hPa 0,0 l/m 0 min 0 min 0 W/m 6,4 km/h (2 Bft) 97,87 %
14.07.2021 22:36 17,1 C 16,1 C 22,3 C 100 % 1008,7 hPa 0,0 l/m 0 min 0 min 0 W/m 9,7 km/h (2 Bft) 97,87 %
14.07.2021 22:38 17,1 C 16,1 C 22,3 C 100 % 1008,8 hPa 0,0 l/m 0 min 0 min 0 W/m 6,4 km/h (2 Bft) 93,48 %
14.07.2021 22:40 17,1 C 16,1 C 22,3 C 100 % 1008,8 hPa 0,0 l/m 0 min 0 min 0 W/m 6,4 km/h (2 Bft) 93,62 %
14.07.2021 22:42 17,0 C 16,1 C 22,3 C 100 % 1008,8 hPa 0,0 l/m 0 min 0 min 0 W/m 0,0 km/h (0 Bft) 93,62 %
14.07.2021 22:44 17,0 C 16,1 C 22,8 C 100 % 1008,9 hPa 0,0 l/m 0 min 0 min 0 W/m 3,2 km/h (1 Bft) 95,74 %
14.07.2021 22:46 17,0 C 16,1 C 22,3 C 100 % 1008,9 hPa 0,0 l/m 0 min 0 min 0 W/m 6,4 km/h (2 Bft) 93,62 %
14.07.2021 22:48 17,0 C 16,1 C 22,3 C 100 % 1008,9 hPa 0,0 l/m 0 min 0 min 0 W/m 3,2 km/h (1 Bft) 95,74 %
14.07.2021 22:50 17,0 C 16,1 C 22,3 C 100 % 1008,9 hPa 0,0 l/m 0 min 0 min 0 W/m 3,2 km/h (1 Bft) 95,65 %
14.07.2021 22:52 16,9 C 16,1 C 22,3 C 100 % 1008,9 hPa 0,0 l/m 0 min 0 min 0 W/m 3,2 km/h (1 Bft) 95,74 %
14.07.2021 22:54 16,9 C 16,1 C 22,3 C 100 % 1008,9 hPa 0,0 l/m 0 min 0 min 0 W/m 6,4 km/h (2 Bft) 95,74 %
14.07.2021 22:56 16,9 C 16,1 C 22,3 C 100 % 1008,9 hPa 0,0 l/m 0 min 0 min 0 W/m 3,2 km/h (1 Bft) 93,62 %
14.07.2021 22:58 16,9 C 16,1 C 22,8 C 100 % 1009,0 hPa 0,0 l/m 0 min 0 min 0 W/m 0,0 km/h (0 Bft) 95,74 %
14.07.2021 23:00 16,9 C 16,1 C 22,8 C 100 % 1009,0 hPa 0,0 l/m 0 min 0 min 0 W/m 0,0 km/h (0 Bft) 93,62 %
14.07.2021 23:02 16,9 C 16,1 C 22,3 C 100 % 1009,0 hPa 0,0 l/m 0 min 0 min 0 W/m 3,2 km/h (1 Bft) 95,65 %
14.07.2021 23:04 16,9 C 16,1 C 22,3 C 100 % 1009,0 hPa 0,0 l/m 0 min 0 min 0 W/m 0,0 km/h (0 Bft) 91,49 %
14.07.2021 23:06 16,9 C 16,1 C 22,3 C 100 % 1009,1 hPa 0,0 l/m 0 min 0 min 0 W/m 3,2 km/h (1 Bft) 94,34 %
14.07.2021 23:08 16,9 C 16,1 C 22,3 C 100 % 1009,1 hPa 0,0 l/m 0 min 0 min 0 W/m 3,2 km/h (1 Bft) 97,56 %
14.07.2021 23:10 16,9 C 16,1 C 22,3 C 100 % 1009,1 hPa 0,0 l/m 0 min 0 min 0 W/m 3,2 km/h (1 Bft) 93,62 %
14.07.2021 23:12 16,9 C 16,1 C 22,8 C 100 % 1009,1 hPa 0,0 l/m 0 min 0 min 0 W/m 0,0 km/h (0 Bft) 96,36 %
14.07.2021 23:14 16,9 C 16,1 C 22,8 C 100 % 1009,1 hPa 0,0 l/m 0 min 0 min 0 W/m 3,2 km/h (1 Bft) 95,74 %
14.07.2021 23:16 16,9 C 16,1 C 22,3 C 100 % 1009,1 hPa 0,0 l/m 0 min 0 min 0 W/m 3,2 km/h (1 Bft) 95,74 %
14.07.2021 23:18 16,9 C 16,1 C 22,3 C 100 % 1009,1 hPa 0,0 l/m 0 min 0 min 0 W/m 3,2 km/h (1 Bft) 95,83 %
14.07.2021 23:20 16,9 C 16,1 C 22,3 C 100 % 1009,1 hPa 0,0 l/m 0 min 0 min 0 W/m 0,0 km/h (0 Bft) 95,74 %
14.07.2021 23:22 16,9 C 16,1 C 22,3 C 100 % 1009,1 hPa 0,0 l/m 0 min 0 min 0 W/m 3,2 km/h (1 Bft) 97,83 %
14.07.2021 23:24 16,9 C 16,1 C 22,3 C 100 % 1009,2 hPa 0,0 l/m 0 min 0 min 0 W/m 0,0 km/h (0 Bft) 95,83 %
14.07.2021 23:26 17,0 C 16,1 C 22,3 C 100 % 1009,2 hPa 0,0 l/m 0 min 0 min 0 W/m 3,2 km/h (1 Bft) 95,74 %
14.07.2021 23:28 17,0 C 16,1 C 22,8 C 100 % 1009,2 hPa 0,0 l/m 0 min 0 min 0 W/m 3,2 km/h (1 Bft) 97,87 %
14.07.2021 23:30 17,0 C 16,1 C 22,8 C 100 % 1009,2 hPa 0,0 l/m 0 min 0 min 0 W/m 3,2 km/h (1 Bft) 97,87 %
14.07.2021 23:32 17,0 C 16,1 C 22,3 C 100 % 1009,2 hPa 0,0 l/m 0 min 0 min 0 W/m 3,2 km/h (1 Bft) 97,83 %
14.07.2021 23:34 17,0 C 16,1 C 22,3 C 100 % 1009,2 hPa 0,0 l/m 0 min 0 min 0 W/m 3,2 km/h (1 Bft) 97,87 %
14.07.2021 23:36 17,0 C 16,1 C 22,3 C 100 % 1009,3 hPa 0,0 l/m 0 min 0 min 0 W/m 3,2 km/h (1 Bft) 97,87 %
14.07.2021 23:38 17,0 C 16,1 C 22,3 C 100 % 1009,3 hPa 0,0 l/m 0 min 0 min 0 W/m 3,2 km/h (1 Bft) 97,87 %
14.07.2021 23:40 17,0 C 16,1 C 22,3 C 100 % 1009,4 hPa 0,0 l/m 0 min 0 min 0 W/m 3,2 km/h (1 Bft) 95,74 %
14.07.2021 23:42 17,0 C 16,1 C 22,3 C 100 % 1009,4 hPa 0,0 l/m 0 min 0 min 0 W/m 3,2 km/h (1 Bft) 97,87 %
14.07.2021 23:44 17,0 C 16,1 C 22,8 C 100 % 1009,5 hPa 0,0 l/m 0 min 0 min 0 W/m 6,4 km/h (2 Bft) 97,83 %
14.07.2021 23:46 17,0 C 16,1 C 22,3 C 100 % 1009,5 hPa 0,0 l/m 0 min 0 min 0 W/m 6,4 km/h (2 Bft) 100,00 %
14.07.2021 23:48 17,0 C 16,1 C 22,3 C 100 % 1009,5 hPa 0,0 l/m 0 min 0 min 0 W/m 6,4 km/h (2 Bft) 96,43 %
14.07.2021 23:50 17,0 C 16,1 C 22,3 C 100 % 1009,5 hPa 0,0 l/m 0 min 0 min 0 W/m 3,2 km/h (1 Bft) 97,87 %
14.07.2021 23:52 17,0 C 16,1 C 22,3 C 100 % 1009,5 hPa 0,0 l/m 0 min 0 min 0 W/m 3,2 km/h (1 Bft) 97,87 %
14.07.2021 23:54 17,0 C 16,1 C 22,3 C 100 % 1009,4 hPa 0,0 l/m 0 min 0 min 0 W/m 6,4 km/h (2 Bft) 95,74 %
14.07.2021 23:56 17,0 C 16,1 C 22,3 C 100 % 1009,4 hPa 0,0 l/m 0 min 0 min 0 W/m 3,2 km/h (1 Bft) 97,83 %
14.07.2021 23:58 17,0 C 16,1 C 22,8 C 100 % 1009,4 hPa 0,0 l/m 0 min 0 min 0 W/m 3,2 km/h (1 Bft) 97,87 %
_ Min-Zeit 22:52 22:14 00:00 00:00 19:36 - - - - 21:22 18:04
Minimum _ 16,9 C 16,1 C 20,6 C 99 % 1006,5 hPa - - - - 0,0 km/h (0 Bft) 76,09 %
_ Max-Zeit 00:00 00:00 15:28 00:36 01:18 20:06 00:00 06:08 13:24 16:14 04:02
Maximum _ 19,6 C 18,9 C 23,9 C 100 % 1009,6 hPa 1,4 l/m 0 min 4 min 128 W/m 41,8 km/h
N-NO (6 Bft)
100,00 %
Durchschnitt _ 18,6 C 17,7 C 22,3 C 100 % 1008,9 hPa #57,2 l/m #0 min. #15:54 h 43 W/m 14,6 km/h (3 Bft) 96,44 %
© 2021 W. Hausmann